Observation data for Endee on 11/22/2020      Previous  Date       Current Mesonet Observations  Soil Data  Daily Summary Page  Observations in Plain Language
KEN1 220600Z 05001KT 05/03 A3027 RMK A01 T00500031  RH  087%=      5-min Rain = 0
KEN1 220601Z 05001KT 05/03 A3026 RMK A01 T00500031  RH  087%=      5-min Rain = 0
KEN1 220602Z 05000KT 05/03 A3026 RMK A01 T00500031  RH  087%=      5-min Rain = 0
KEN1 220603Z 05000KT 05/03 A3026 RMK A01 T00500030  RH  087%=      5-min Rain = 0
KEN1 220604Z 05000KT 05/03 A3026 RMK A01 T00500031  RH  087%=      5-min Rain = 0
KEN1 220605Z 00000KT 05/03 A3026 RMK A01 T00500031  RH  087%=      5-min Rain = 0
KEN1 220606Z 05000KT 05/03 A3026 RMK A01 T00500030  RH  087%=      5-min Rain = 0
KEN1 220607Z 05001KT 05/03 A3026 RMK A01 T00500030  RH  087%=      5-min Rain = 0
KEN1 220608Z 05001KT 05/03 A3026 RMK A01 T00500030  RH  087%=      5-min Rain = 0
KEN1 220609Z 05001KT 05/03 A3026 RMK A01 T00500030  RH  087%=      5-min Rain = 0
KEN1 220610Z 05001KT 05/03 A3026 RMK A01 T00500030  RH  087%=      5-min Rain = 0
KEN1 220611Z 05001KT 05/03 A3026 RMK A01 T00500031  RH  087%=      5-min Rain = 0
KEN1 220612Z 05001KT 05/03 A3025 RMK A01 T00500031  RH  087%=      5-min Rain = 0
KEN1 220613Z 05001KT 05/03 A3025 RMK A01 T00510032  RH  088%=      5-min Rain = 0
KEN1 220614Z 05000KT 05/03 A3025 RMK A01 T00510033  RH  088%=      5-min Rain = 0
KEN1 220615Z 11000KT 05/03 A3025 RMK A01 T00520034  RH  089%=      5-min Rain = 0
KEN1 220616Z 15002KT 05/03 A3025 RMK A01 T00520033  RH  088%=      5-min Rain = 0
KEN1 220617Z 15002KT 05/03 A3025 RMK A01 T00510032  RH  087%=      5-min Rain = 0
KEN1 220618Z 15002KT 05/03 A3025 RMK A01 T00510032  RH  087%=      5-min Rain = 0
KEN1 220619Z 15002KT 05/03 A3025 RMK A01 T00500031  RH  087%=      5-min Rain = 0
KEN1 220620Z 15002KT 05/03 A3025 RMK A01 T00500031  RH  087%=      5-min Rain = 0
KEN1 220621Z 16002KT 05/03 A3026 RMK A01 T00490030  RH  088%=      5-min Rain = 0
KEN1 220622Z 16001KT 05/03 A3026 RMK A01 T00490030  RH  088%=      5-min Rain = 0
KEN1 220623Z 16001KT 05/03 A3026 RMK A01 T00480031  RH  088%=      5-min Rain = 0
KEN1 220624Z 16001KT 05/03 A3026 RMK A01 T00480031  RH  089%=      5-min Rain = 0
KEN1 220625Z 18001KT 05/03 A3026 RMK A01 T00480031  RH  089%=      5-min Rain = 0
KEN1 220626Z 17001KT 05/03 A3026 RMK A01 T00480032  RH  089%=      5-min Rain = 0
KEN1 220627Z 15002KT 05/03 A3026 RMK A01 T00480032  RH  089%=      5-min Rain = 0
KEN1 220628Z 15002KT 05/03 A3025 RMK A01 T00480032  RH  089%=      5-min Rain = 0
KEN1 220629Z 15002KT 05/03 A3025 RMK A01 T00480033  RH  090%=      5-min Rain = 0
KEN1 220630Z 15002KT 05/03 A3025 RMK A01 T00490033  RH  090%=      5-min Rain = 0
KEN1 220631Z 15002KT 05/03 A3025 RMK A01 T00490034  RH  090%=      5-min Rain = 0
KEN1 220632Z 15001KT 05/04 A3025 RMK A01 T00500035  RH  090%=      5-min Rain = 0
KEN1 220633Z 15001KT 05/04 A3025 RMK A01 T00500035  RH  090%=      5-min Rain = 0
KEN1 220634Z 16002KT 05/04 A3025 RMK A01 T00510035  RH  090%=      5-min Rain = 0
KEN1 220635Z 17002KT 05/04 A3025 RMK A01 T00510035  RH  089%=      5-min Rain = 0
KEN1 220636Z 17002KT 05/04 A3025 RMK A01 T00520035  RH  089%=      5-min Rain = 0
KEN1 220637Z 17002KT 05/04 A3025 RMK A01 T00520035  RH  089%=      5-min Rain = 0
KEN1 220638Z 17002KT 05/04 A3025 RMK A01 T00520035  RH  089%=      5-min Rain = 0
KEN1 220639Z 17002KT 05/04 A3025 RMK A01 T00520035  RH  089%=      5-min Rain = 0
KEN1 220640Z 16002KT 05/04 A3025 RMK A01 T00520035  RH  089%=      5-min Rain = 0
KEN1 220641Z 16002KT 05/04 A3025 RMK A01 T00510035  RH  089%=      5-min Rain = 0
KEN1 220642Z 16001KT 05/04 A3025 RMK A01 T00510035  RH  089%=      5-min Rain = 0
KEN1 220643Z 16001KT 05/04 A3025 RMK A01 T00520035  RH  089%=      5-min Rain = 0
KEN1 220644Z 18002KT 05/04 A3025 RMK A01 T00510035  RH  089%=      5-min Rain = 0
KEN1 220645Z 18002KT 05/03 A3025 RMK A01 T00510034  RH  089%=      5-min Rain = 0
KEN1 220646Z 18003KT 05/03 A3025 RMK A01 T00510034  RH  089%=      5-min Rain = 0
KEN1 220647Z 18003KT 05/03 A3025 RMK A01 T00510034  RH  089%=      5-min Rain = 0
KEN1 220648Z 18003KT 05/03 A3025 RMK A01 T00520034  RH  089%=      5-min Rain = 0
KEN1 220649Z 18004KT 05/03 A3025 RMK A01 T00510034  RH  089%=      5-min Rain = 0
KEN1 220650Z 18005KT 05/03 A3025 RMK A01 T00520034  RH  089%=      5-min Rain = 0
KEN1 220651Z 17005KT 05/03 A3025 RMK A01 T00510034  RH  089%=      5-min Rain = 0
KEN1 220652Z 17005KT 05/03 A3025 RMK A01 T00510034  RH  089%=      5-min Rain = 0
KEN1 220653Z 17005KT 05/03 A3025 RMK A01 T00510034  RH  089%=      5-min Rain = 0
KEN1 220654Z 17005KT 05/04 A3025 RMK A01 T00510035  RH  089%=      5-min Rain = 0
KEN1 220655Z 17005KT 05/03 A3025 RMK A01 T00500034  RH  089%=      5-min Rain = 0
KEN1 220656Z 17005KT 05/03 A3025 RMK A01 T00500034  RH  089%=      5-min Rain = 0
KEN1 220657Z 17004KT 05/03 A3025 RMK A01 T00500034  RH  089%=      5-min Rain = 0
KEN1 220658Z 17004KT 05/03 A3025 RMK A01 T00490034  RH  090%=      5-min Rain = 0
KEN1 220659Z 17003KT 05/03 A3025 RMK A01 T00490033  RH  090%=      5-min Rain = 0
KEN1 220700Z 17003KT 05/03 A3025 RMK A01 T00490034  RH  090%=      5-min Rain = 0
KEN1 220701Z 17004KT 05/03 A3025 RMK A01 T00490034  RH  090%=      5-min Rain = 0
KEN1 220702Z 17004KT 05/03 A3025 RMK A01 T00480033  RH  090%=      5-min Rain = 0
KEN1 220703Z 17004KT 05/03 A3025 RMK A01 T00480033  RH  090%=      5-min Rain = 0
KEN1 220704Z 18004KT 05/03 A3025 RMK A01 T00480033  RH  090%=      5-min Rain = 0
KEN1 220705Z 18003KT 05/03 A3025 RMK A01 T00480033  RH  090%=      5-min Rain = 0
KEN1 220706Z 18003KT 05/03 A3025 RMK A01 T00470032  RH  090%=      5-min Rain = 0
KEN1 220707Z 19002KT 05/03 A3025 RMK A01 T00470033  RH  090%=      5-min Rain = 0
KEN1 220708Z 19001KT 05/03 A3025 RMK A01 T00470032  RH  090%=      5-min Rain = 0
KEN1 220709Z 19001KT 05/03 A3025 RMK A01 T00470032  RH  090%=      5-min Rain = 0
KEN1 220710Z 21002KT 05/03 A3025 RMK A01 T00470033  RH  090%=      5-min Rain = 0
KEN1 220711Z 21002KT 05/03 A3025 RMK A01 T00470033  RH  091%=      5-min Rain = 0
KEN1 220712Z 21002KT 05/03 A3025 RMK A01 T00470033  RH  091%=      5-min Rain = 0
KEN1 220713Z 22001KT 05/03 A3025 RMK A01 T00470033  RH  091%=      5-min Rain = 0
KEN1 220714Z 22001KT 05/03 A3025 RMK A01 T00470033  RH  091%=      5-min Rain = 0
KEN1 220715Z 22001KT 05/03 A3025 RMK A01 T00470033  RH  091%=      5-min Rain = 0
KEN1 220716Z 22001KT 05/03 A3025 RMK A01 T00470033  RH  091%=      5-min Rain = 0
KEN1 220717Z 22001KT 05/03 A3025 RMK A01 T00470033  RH  091%=      5-min Rain = 0
KEN1 220718Z 22001KT 05/03 A3025 RMK A01 T00470033  RH  091%=      5-min Rain = 0
KEN1 220719Z 30000KT 05/03 A3025 RMK A01 T00470033  RH  091%=      5-min Rain = 0
KEN1 220720Z 32002KT 05/03 A3025 RMK A01 T00480033  RH  091%=      5-min Rain = 0
KEN1 220721Z 32003KT 05/03 A3025 RMK A01 T00470033  RH  091%=      5-min Rain = 0
KEN1 220722Z 30002KT 05/03 A3025 RMK A01 T00470033  RH  091%=      5-min Rain = 0
KEN1 220723Z 26002KT 05/03 A3025 RMK A01 T00470033  RH  091%=      5-min Rain = 0
KEN1 220724Z 23002KT 05/03 A3025 RMK A01 T00480033  RH  091%=      5-min Rain = 0
KEN1 220725Z 22003KT 05/03 A3025 RMK A01 T00470033  RH  090%=      5-min Rain = 0
KEN1 220726Z 22003KT 05/03 A3025 RMK A01 T00480033  RH  090%=      5-min Rain = 0
KEN1 220727Z 21003KT 05/03 A3025 RMK A01 T00480032  RH  090%=      5-min Rain = 0
KEN1 220728Z 21003KT 05/03 A3025 RMK A01 T00480032  RH  090%=      5-min Rain = 0
KEN1 220729Z 21002KT 05/03 A3025 RMK A01 T00480032  RH  090%=      5-min Rain = 0
KEN1 220730Z 22002KT 05/03 A3025 RMK A01 T00470032  RH  090%=      5-min Rain = 0
KEN1 220731Z 23001KT 05/03 A3025 RMK A01 T00470031  RH  090%=      5-min Rain = 0
KEN1 220732Z 25001KT 05/03 A3025 RMK A01 T00470032  RH  090%=      5-min Rain = 0
KEN1 220733Z 26002KT 05/03 A3025 RMK A01 T00460031  RH  090%=      5-min Rain = 0
KEN1 220734Z 26002KT 05/03 A3025 RMK A01 T00460031  RH  090%=      5-min Rain = 0
KEN1 220735Z 26002KT 05/03 A3025 RMK A01 T00460031  RH  090%=      5-min Rain = 0
KEN1 220736Z 26002KT 05/03 A3025 RMK A01 T00460031  RH  090%=      5-min Rain = 0
KEN1 220737Z 27002KT 05/03 A3025 RMK A01 T00460031  RH  090%=      5-min Rain = 0
KEN1 220738Z 28003KT 05/03 A3025 RMK A01 T00450031  RH  090%=      5-min Rain = 0
KEN1 220739Z 27002KT 05/03 A3025 RMK A01 T00450031  RH  090%=      5-min Rain = 0
KEN1 220740Z 26002KT 04/03 A3024 RMK A01 T00440030  RH  090%=      5-min Rain = 0
KEN1 220741Z 24002KT 04/03 A3024 RMK A01 T00440029  RH  090%=      5-min Rain = 0
KEN1 220742Z 22003KT 04/03 A3024 RMK A01 T00430029  RH  090%=      5-min Rain = 0
KEN1 220743Z 21003KT 04/03 A3024 RMK A01 T00430029  RH  091%=      5-min Rain = 0
KEN1 220744Z 20003KT 04/03 A3024 RMK A01 T00420028  RH  091%=      5-min Rain = 0
KEN1 220745Z 19003KT 04/03 A3024 RMK A01 T00420028  RH  091%=      5-min Rain = 0
KEN1 220746Z 19003KT 04/03 A3024 RMK A01 T00420028  RH  091%=      5-min Rain = 0
KEN1 220747Z 18002KT 04/03 A3024 RMK A01 T00420028  RH  091%=      5-min Rain = 0
KEN1 220748Z 18002KT 04/03 A3023 RMK A01 T00420028  RH  091%=      5-min Rain = 0
KEN1 220749Z 18002KT 04/03 A3023 RMK A01 T00420028  RH  091%=      5-min Rain = 0
KEN1 220750Z 18002KT 04/03 A3024 RMK A01 T00410028  RH  091%=      5-min Rain = 0
KEN1 220751Z 18002KT 04/03 A3024 RMK A01 T00420028  RH  091%=      5-min Rain = 0
KEN1 220752Z 18001KT 04/03 A3024 RMK A01 T00410028  RH  091%=      5-min Rain = 0
KEN1 220753Z 18001KT 04/03 A3024 RMK A01 T00410028  RH  091%=      5-min Rain = 0
KEN1 220754Z 18000KT 04/03 A3024 RMK A01 T00410028  RH  091%=      5-min Rain = 0
KEN1 220755Z 18001KT 04/03 A3024 RMK A01 T00410027  RH  091%=      5-min Rain = 0
KEN1 220756Z 18001KT 04/03 A3024 RMK A01 T00410027  RH  091%=      5-min Rain = 0
KEN1 220757Z 18001KT 04/03 A3024 RMK A01 T00410027  RH  091%=      5-min Rain = 0
KEN1 220758Z 18001KT 04/03 A3024 RMK A01 T00400027  RH  091%=      5-min Rain = 0
KEN1 220759Z 21002KT 04/03 A3024 RMK A01 T00400027  RH  091%=      5-min Rain = 0
KEN1 220800Z 23003KT 04/03 A3024 RMK A01 T00410028  RH  091%=      5-min Rain = 0
KEN1 220801Z 22003KT 04/03 A3024 RMK A01 T00420029  RH  091%=      5-min Rain = 0
KEN1 220802Z 21003KT 04/03 A3024 RMK A01 T00420029  RH  091%=      5-min Rain = 0
KEN1 220803Z 21003KT 04/03 A3024 RMK A01 T00420028  RH  091%=      5-min Rain = 0
KEN1 220804Z 21002KT 04/03 A3024 RMK A01 T00420028  RH  090%=      5-min Rain = 0
KEN1 220805Z 21002KT 04/03 A3024 RMK A01 T00420028  RH  090%=      5-min Rain = 0
KEN1 220806Z 22003KT 04/03 A3024 RMK A01 T00420027  RH  090%=      5-min Rain = 0
KEN1 220807Z 22003KT 04/03 A3024 RMK A01 T00420027  RH  090%=      5-min Rain = 0
KEN1 220808Z 22003KT 04/03 A3024 RMK A01 T00420026  RH  089%=      5-min Rain = 0
KEN1 220809Z 22002KT 04/03 A3024 RMK A01 T00410026  RH  090%=      5-min Rain = 0
KEN1 220810Z 22002KT 04/03 A3024 RMK A01 T00410025  RH  090%=      5-min Rain = 0
KEN1 220811Z 21002KT 04/03 A3024 RMK A01 T00410026  RH  090%=      5-min Rain = 0
KEN1 220812Z 21001KT 04/03 A3024 RMK A01 T00410026  RH  090%=      5-min Rain = 0
KEN1 220813Z 21001KT 04/03 A3024 RMK A01 T00410026  RH  090%=      5-min Rain = 0
KEN1 220814Z 22001KT 04/03 A3024 RMK A01 T00410025  RH  090%=      5-min Rain = 0
KEN1 220815Z 26002KT 04/03 A3024 RMK A01 T00410025  RH  090%=      5-min Rain = 0
KEN1 220816Z 26002KT 04/03 A3024 RMK A01 T00410026  RH  090%=      5-min Rain = 0
KEN1 220817Z 25002KT 04/03 A3024 RMK A01 T00410026  RH  090%=      5-min Rain = 0
KEN1 220818Z 25001KT 04/03 A3024 RMK A01 T00410026  RH  090%=      5-min Rain = 0
KEN1 220819Z 25001KT 04/03 A3024 RMK A01 T00410025  RH  090%=      5-min Rain = 0
KEN1 220820Z 23002KT 04/03 A3024 RMK A01 T00410026  RH  090%=      5-min Rain = 0
KEN1 220821Z 23001KT 04/03 A3024 RMK A01 T00410026  RH  090%=      5-min Rain = 0
KEN1 220822Z 24000KT 04/03 A3024 RMK A01 T00410025  RH  090%=      5-min Rain = 0
KEN1 220823Z 24001KT 04/02 A3024 RMK A01 T00390022  RH  089%=      5-min Rain = 0
KEN1 220824Z 27001KT 04/02 A3024 RMK A01 T00390024  RH  090%=      5-min Rain = 0
KEN1 220825Z 29002KT 04/03 A3024 RMK A01 T00400025  RH  090%=      5-min Rain = 0
KEN1 220826Z 28002KT 04/03 A3024 RMK A01 T00400026  RH  091%=      5-min Rain = 0
KEN1 220827Z 29001KT 04/03 A3024 RMK A01 T00410027  RH  091%=      5-min Rain = 0
KEN1 220828Z 29000KT 04/03 A3024 RMK A01 T00410027  RH  090%=      5-min Rain = 0
KEN1 220829Z 00000KT 04/03 A3024 RMK A01 T00410025  RH  090%=      5-min Rain = 0
KEN1 220830Z 00000KT 04/03 A3024 RMK A01 T00410025  RH  089%=      5-min Rain = 0
KEN1 220831Z 00000KT 04/03 A3024 RMK A01 T00410025  RH  089%=      5-min Rain = 0
KEN1 220832Z 02000KT 04/03 A3025 RMK A01 T00410026  RH  090%=      5-min Rain = 0
KEN1 220833Z 01001KT 04/03 A3025 RMK A01 T00410025  RH  090%=      5-min Rain = 0
KEN1 220834Z 35002KT 04/02 A3025 RMK A01 T00390022  RH  088%=      5-min Rain = 0
KEN1 220835Z 34002KT 04/02 A3025 RMK A01 T00370019  RH  088%=      5-min Rain = 0
KEN1 220836Z 33002KT 04/02 A3025 RMK A01 T00360021  RH  090%=      5-min Rain = 0
KEN1 220837Z 32002KT 04/03 A3025 RMK A01 T00380025  RH  091%=      5-min Rain = 0
KEN1 220838Z 30002KT 04/02 A3025 RMK A01 T00380024  RH  090%=      5-min Rain = 0
KEN1 220839Z 29002KT 04/02 A3025 RMK A01 T00370022  RH  090%=      5-min Rain = 0
KEN1 220840Z 28001KT 04/02 A3025 RMK A01 T00370022  RH  090%=      5-min Rain = 0
KEN1 220841Z 28002KT 04/02 A3025 RMK A01 T00370022  RH  090%=      5-min Rain = 0
KEN1 220842Z 28003KT 04/02 A3025 RMK A01 T00370023  RH  090%=      5-min Rain = 0
KEN1 220843Z 29003KT 04/02 A3025 RMK A01 T00370023  RH  091%=      5-min Rain = 0
KEN1 220844Z 30004KT 04/03 A3025 RMK A01 T00380025  RH  091%=      5-min Rain = 0
KEN1 220845Z 31004KT 04/03 A3025 RMK A01 T00380025  RH  091%=      5-min Rain = 0
KEN1 220846Z 32004KT 04/03 A3025 RMK A01 T00390026  RH  091%=      5-min Rain = 0
KEN1 220847Z 32003KT 04/03 A3025 RMK A01 T00400026  RH  091%=      5-min Rain = 0
KEN1 220848Z 32002KT 04/03 A3025 RMK A01 T00400027  RH  091%=      5-min Rain = 0
KEN1 220849Z 33002KT 04/03 A3025 RMK A01 T00410027  RH  091%=      5-min Rain = 0
KEN1 220850Z 33003KT 04/03 A3025 RMK A01 T00420028  RH  091%=      5-min Rain = 0
KEN1 220851Z 33003KT 04/03 A3025 RMK A01 T00430030  RH  091%=      5-min Rain = 0
KEN1 220852Z 32003KT 04/03 A3025 RMK A01 T00440031  RH  091%=      5-min Rain = 0
KEN1 220853Z 32004KT 04/03 A3025 RMK A01 T00440031  RH  091%=      5-min Rain = 0
KEN1 220854Z 32004KT 05/03 A3025 RMK A01 T00450032  RH  091%=      5-min Rain = 0
KEN1 220855Z 32003KT 05/03 A3025 RMK A01 T00450032  RH  091%=      5-min Rain = 0
KEN1 220856Z 33003KT 05/03 A3025 RMK A01 T00460032  RH  091%=      5-min Rain = 0
KEN1 220857Z 34004KT 05/03 A3025 RMK A01 T00470033  RH  091%=      5-min Rain = 0
KEN1 220858Z 35004KT 05/03 A3025 RMK A01 T00480034  RH  090%=      5-min Rain = 0
KEN1 220859Z 00004KT 05/03 A3025 RMK A01 T00490034  RH  090%=      5-min Rain = 0
KEN1 220900Z 00003KT 05/04 A3025 RMK A01 T00490035  RH  090%=      5-min Rain = 0
KEN1 220901Z 00003KT 05/04 A3025 RMK A01 T00500036  RH  091%=      5-min Rain = 0
KEN1 220902Z 00003KT 05/04 A3026 RMK A01 T00500037  RH  091%=      5-min Rain = 0
KEN1 220903Z 36002KT 05/04 A3026 RMK A01 T00510038  RH  091%=      5-min Rain = 0
KEN1 220904Z 35003KT 05/04 A3026 RMK A01 T00520039  RH  091%=      5-min Rain = 0
KEN1 220905Z 35003KT 05/04 A3026 RMK A01 T00530040  RH  091%=      5-min Rain = 0
KEN1 220906Z 35003KT 05/04 A3026 RMK A01 T00540041  RH  091%=      5-min Rain = 0
KEN1 220907Z 36003KT 06/04 A3026 RMK A01 T00560041  RH  091%=      5-min Rain = 0
KEN1 220908Z 00004KT 06/04 A3026 RMK A01 T00570042  RH  090%=      5-min Rain = 0
KEN1 220909Z 00004KT 06/04 A3026 RMK A01 T00580042  RH  090%=      5-min Rain = 0
KEN1 220910Z 01004KT 06/04 A3026 RMK A01 T00580043  RH  090%=      5-min Rain = 0
KEN1 220911Z 01004KT 06/04 A3026 RMK A01 T00590044  RH  090%=      5-min Rain = 0
KEN1 220912Z 00005KT 06/04 A3026 RMK A01 T00600044  RH  090%=      5-min Rain = 0
KEN1 220913Z 00004KT 06/04 A3026 RMK A01 T00600044  RH  089%=      5-min Rain = 0
KEN1 220914Z 01003KT 06/04 A3026 RMK A01 T00600044  RH  089%=      5-min Rain = 0
KEN1 220915Z 01003KT 06/04 A3026 RMK A01 T00610044  RH  089%=      5-min Rain = 0
KEN1 220916Z 03002KT 06/04 A3026 RMK A01 T00610044  RH  089%=      5-min Rain = 0
KEN1 220917Z 04002KT 06/04 A3026 RMK A01 T00610044  RH  089%=      5-min Rain = 0
KEN1 220918Z 04003KT 06/04 A3026 RMK A01 T00610044  RH  089%=      5-min Rain = 0
KEN1 220919Z 03003KT 06/04 A3026 RMK A01 T00610044  RH  089%=      5-min Rain = 0
KEN1 220920Z 03003KT 06/04 A3026 RMK A01 T00610044  RH  089%=      5-min Rain = 0
KEN1 220921Z 03004KT 06/04 A3026 RMK A01 T00610044  RH  089%=      5-min Rain = 0
KEN1 220922Z 02004KT 06/04 A3026 RMK A01 T00610043  RH  088%=      5-min Rain = 0
KEN1 220923Z 03003KT 06/04 A3026 RMK A01 T00610043  RH  088%=      5-min Rain = 0
KEN1 220924Z 03004KT 06/04 A3026 RMK A01 T00610043  RH  088%=      5-min Rain = 0
KEN1 220925Z 03004KT 06/04 A3026 RMK A01 T00610043  RH  088%=      5-min Rain = 0
KEN1 220926Z 03003KT 06/04 A3026 RMK A01 T00610043  RH  088%=      5-min Rain = 0
KEN1 220927Z 04003KT 06/04 A3026 RMK A01 T00610044  RH  088%=      5-min Rain = 0
KEN1 220928Z 04003KT 06/04 A3026 RMK A01 T00620044  RH  088%=      5-min Rain = 0
KEN1 220929Z 04003KT 06/04 A3026 RMK A01 T00620044  RH  088%=      5-min Rain = 0
KEN1 220930Z 03003KT 06/04 A3026 RMK A01 T00620043  RH  088%=      5-min Rain = 0
KEN1 220931Z 03004KT 06/04 A3026 RMK A01 T00620043  RH  088%=      5-min Rain = 0
KEN1 220932Z 02004KT 06/04 A3026 RMK A01 T00620044  RH  088%=      5-min Rain = 0
KEN1 220933Z 02004KT 06/04 A3026 RMK A01 T00620044  RH  088%=      5-min Rain = 0
KEN1 220934Z 03003KT 06/04 A3026 RMK A01 T00630044  RH  088%=      5-min Rain = 0
KEN1 220935Z 02003KT 06/04 A3026 RMK A01 T00620044  RH  088%=      5-min Rain = 0
KEN1 220936Z 03004KT 06/04 A3026 RMK A01 T00620044  RH  088%=      5-min Rain = 0
KEN1 220937Z 03004KT 06/04 A3026 RMK A01 T00630044  RH  088%=      5-min Rain = 0
KEN1 220938Z 02005KT 06/04 A3027 RMK A01 T00630044  RH  088%=      5-min Rain = 0
KEN1 220939Z 02006KT 06/05 A3027 RMK A01 T00630045  RH  088%=      5-min Rain = 0
KEN1 220940Z 02006KT 06/04 A3027 RMK A01 T00630044  RH  088%=      5-min Rain = 0
KEN1 220941Z 02006KT 06/04 A3027 RMK A01 T00630044  RH  087%=      5-min Rain = 0
KEN1 220942Z 02006KT 06/04 A3027 RMK A01 T00630043  RH  087%=      5-min Rain = 0
KEN1 220943Z 02006KT 06/04 A3027 RMK A01 T00630043  RH  087%=      5-min Rain = 0
KEN1 220944Z 02007KT 06/04 A3027 RMK A01 T00630043  RH  087%=      5-min Rain = 0
KEN1 220945Z 02006KT 06/04 A3027 RMK A01 T00630042  RH  086%=      5-min Rain = 0
KEN1 220946Z 01007KT 06/04 A3027 RMK A01 T00630042  RH  086%=      5-min Rain = 0
KEN1 220947Z 01006KT 06/04 A3027 RMK A01 T00630042  RH  086%=      5-min Rain = 0
KEN1 220948Z 02006KT 06/04 A3027 RMK A01 T00630041  RH  086%=      5-min Rain = 0
KEN1 220949Z 02006KT 06/04 A3027 RMK A01 T00630041  RH  086%=      5-min Rain = 0
KEN1 220950Z 02005KT 06/04 A3027 RMK A01 T00630041  RH  086%=      5-min Rain = 0
KEN1 220951Z 02006KT 06/04 A3027 RMK A01 T00630041  RH  086%=      5-min Rain = 0
KEN1 220952Z 03006KT 06/04 A3027 RMK A01 T00630041  RH  086%=      5-min Rain = 0
KEN1 220953Z 02006KT 06/04 A3027 RMK A01 T00630041  RH  085%=      5-min Rain = 0
KEN1 220954Z 02006KT 06/04 A3028 RMK A01 T00630040  RH  085%=      5-min Rain = 0
KEN1 220955Z 03005KT 06/04 A3028 RMK A01 T00630040  RH  085%=      5-min Rain = 0
KEN1 220956Z 03005KT 06/04 A3028 RMK A01 T00630040  RH  085%=      5-min Rain = 0
KEN1 220957Z 03007KT 06/04 A3027 RMK A01 T00630040  RH  085%=      5-min Rain = 0
KEN1 220958Z 03007KT 06/04 A3027 RMK A01 T00630040  RH  085%=      5-min Rain = 0
KEN1 220959Z 03006KT 06/04 A3028 RMK A01 T00630040  RH  085%=      5-min Rain = 0
KEN1 221000Z 03007KT 06/04 A3028 RMK A01 T00630040  RH  085%=      5-min Rain = 0
KEN1 221001Z 02007KT 06/04 A3028 RMK A01 T00640041  RH  085%=      5-min Rain = 0
KEN1 221002Z 02007KT 06/04 A3028 RMK A01 T00640040  RH  085%=      5-min Rain = 0
KEN1 221003Z 02006KT 06/04 A3028 RMK A01 T00640040  RH  085%=      5-min Rain = 0
KEN1 221004Z 02006KT 06/04 A3028 RMK A01 T00640040  RH  085%=      5-min Rain = 0
KEN1 221005Z 02006KT 06/04 A3028 RMK A01 T00640041  RH  085%=      5-min Rain = 0
KEN1 221006Z 03006KT 06/04 A3028 RMK A01 T00640041  RH  085%=      5-min Rain = 0
KEN1 221007Z 02006KT 07/04 A3028 RMK A01 T00650041  RH  085%=      5-min Rain = 0
KEN1 221008Z 03005KT 07/04 A3028 RMK A01 T00650041  RH  085%=      5-min Rain = 0
KEN1 221009Z 03005KT 07/04 A3028 RMK A01 T00650041  RH  085%=      5-min Rain = 0
KEN1 221010Z 02006KT 07/04 A3028 RMK A01 T00650041  RH  085%=      5-min Rain = 0
KEN1 221011Z 02006KT 07/04 A3028 RMK A01 T00650041  RH  085%=      5-min Rain = 0
KEN1 221012Z 01006KT 07/04 A3028 RMK A01 T00660042  RH  085%=      5-min Rain = 0
KEN1 221013Z 01007KT 07/04 A3028 RMK A01 T00660041  RH  084%=      5-min Rain = 0
KEN1 221014Z 01006KT 07/04 A3028 RMK A01 T00660041  RH  084%=      5-min Rain = 0
KEN1 221015Z 01007KT 07/04 A3028 RMK A01 T00660041  RH  084%=      5-min Rain = 0
KEN1 221016Z 02006KT 07/04 A3028 RMK A01 T00660041  RH  084%=      5-min Rain = 0
KEN1 221017Z 01006KT 07/04 A3028 RMK A01 T00660041  RH  084%=      5-min Rain = 0
KEN1 221018Z 02005KT 07/04 A3028 RMK A01 T00660041  RH  084%=      5-min Rain = 0
KEN1 221019Z 02006KT 07/04 A3028 RMK A01 T00660041  RH  084%=      5-min Rain = 0
KEN1 221020Z 02007KT 07/04 A3028 RMK A01 T00660041  RH  084%=      5-min Rain = 0
KEN1 221021Z 02006KT 07/04 A3029 RMK A01 T00670041  RH  084%=      5-min Rain = 0
KEN1 221022Z 01006KT 07/04 A3029 RMK A01 T00670042  RH  084%=      5-min Rain = 0
KEN1 221023Z 01006KT 07/04 A3029 RMK A01 T00670042  RH  084%=      5-min Rain = 0
KEN1 221024Z 01007KT 07/04 A3029 RMK A01 T00670042  RH  084%=      5-min Rain = 0
KEN1 221025Z 02006KT 07/04 A3029 RMK A01 T00680043  RH  084%=      5-min Rain = 0
KEN1 221026Z 02007KT 07/04 A3029 RMK A01 T00680043  RH  084%=      5-min Rain = 0
KEN1 221027Z 03008KT 07/04 A3029 RMK A01 T00680044  RH  084%=      5-min Rain = 0
KEN1 221028Z 03007KT 07/05 A3029 RMK A01 T00690045  RH  084%=      5-min Rain = 0
KEN1 221029Z 03008KT 07/05 A3029 RMK A01 T00690045  RH  084%=      5-min Rain = 0
KEN1 221030Z 03007KT 07/05 A3029 RMK A01 T00700045  RH  084%=      5-min Rain = 0
KEN1 221031Z 03009KT 07/05 A3029 RMK A01 T00710046  RH  084%=      5-min Rain = 0
KEN1 221032Z 03008KT 07/05 A3029 RMK A01 T00710046  RH  084%=      5-min Rain = 0
KEN1 221033Z 03008KT 07/05 A3029 RMK A01 T00710046  RH  084%=      5-min Rain = 0
KEN1 221034Z 04007KT 07/05 A3029 RMK A01 T00720047  RH  084%=      5-min Rain = 0
KEN1 221035Z 03008KT 07/05 A3029 RMK A01 T00720047  RH  084%=      5-min Rain = 0
KEN1 221036Z 04007KT 07/05 A3029 RMK A01 T00720048  RH  085%=      5-min Rain = 0
KEN1 221037Z 03006KT 07/05 A3029 RMK A01 T00720048  RH  085%=      5-min Rain = 0
KEN1 221038Z 04006KT 07/05 A3029 RMK A01 T00730049  RH  085%=      5-min Rain = 0
KEN1 221039Z 04007KT 07/05 A3029 RMK A01 T00740051  RH  085%=      5-min Rain = 0
KEN1 221040Z 03008KT 07/05 A3029 RMK A01 T00740052  RH  086%=      5-min Rain = 0
KEN1 221041Z 03008KT 07/05 A3029 RMK A01 T00740053  RH  087%=      5-min Rain = 0
KEN1 221042Z 03009KT 07/05 A3029 RMK A01 T00740054  RH  087%=      5-min Rain = 0
KEN1 221043Z 04009KT 08/06 A303 RMK A01 T00750055  RH  087%=      5-min Rain = 0
KEN1 221044Z 03007KT 08/06 A303 RMK A01 T00750055  RH  087%=      5-min Rain = 0
KEN1 221045Z 03008KT 08/06 A303 RMK A01 T00750056  RH  088%=      5-min Rain = 0
KEN1 221046Z 04010KT 08/06 A303 RMK A01 T00750057  RH  088%=      5-min Rain = 0
KEN1 221047Z 04010KT 08/06 A303 RMK A01 T00750058  RH  089%=      5-min Rain = 0
KEN1 221048Z 04010KT 08/06 A303 RMK A01 T00750059  RH  090%=      5-min Rain = 0
KEN1 221049Z 04011KT 08/06 A303 RMK A01 T00750059  RH  090%=      5-min Rain = 0
KEN1 221050Z 04009KT 08/06 A303 RMK A01 T00750060  RH  091%=      5-min Rain = 0
KEN1 221051Z 04008KT 08/06 A303 RMK A01 T00750061  RH  091%=      5-min Rain = 0
KEN1 221052Z 04009KT 08/06 A303 RMK A01 T00750062  RH  091%=      5-min Rain = 0
KEN1 221053Z 04009KT 07/06 A303 RMK A01 T00740062  RH  092%=      5-min Rain = 0
KEN1 221054Z 04010KT 07/06 A303 RMK A01 T00740063  RH  092%=      5-min Rain = 0
KEN1 221055Z 03008KT 07/06 A303 RMK A01 T00740063  RH  093%=      5-min Rain = 0
KEN1 221056Z 03008KT 07/06 A303 RMK A01 T00740063  RH  093%=      5-min Rain = 0
KEN1 221057Z 03008KT 07/06 A303 RMK A01 T00740064  RH  094%=      5-min Rain = 0
KEN1 221058Z 04008KT 07/06 A303 RMK A01 T00740064  RH  094%=      5-min Rain = 0
KEN1 221059Z 03008KT 07/07 A303 RMK A01 T00730065  RH  094%=      5-min Rain = 0
KEN1 221100Z 03009KT 07/07 A303 RMK A01 T00730065  RH  094%=      5-min Rain = 0
KEN1 221101Z 03009KT 07/07 A303 RMK A01 T00730065  RH  095%=      5-min Rain = 0
KEN1 221102Z 03008KT 07/07 A303 RMK A01 T00730066  RH  095%=      5-min Rain = 0
KEN1 221103Z 03007KT 07/07 A303 RMK A01 T00730066  RH  095%=      5-min Rain = 0
KEN1 221104Z 03008KT 07/07 A3031 RMK A01 T00730066  RH  096%=      5-min Rain = 0
KEN1 221105Z 03009KT 07/07 A3031 RMK A01 T00730066  RH  096%=      5-min Rain = 0
KEN1 221106Z 03008KT 07/07 A3031 RMK A01 T00720066  RH  096%=      5-min Rain = 0
KEN1 221107Z 03007KT 07/07 A3031 RMK A01 T00720066  RH  096%=      5-min Rain = 0
KEN1 221108Z 03009KT 07/07 A3031 RMK A01 T00720067  RH  096%=      5-min Rain = 0
KEN1 221109Z 03008KT 07/07 A3031 RMK A01 T00730067  RH  096%=      5-min Rain = 0
KEN1 221110Z 03008KT 07/07 A3031 RMK A01 T00720067  RH  096%=      5-min Rain = 0
KEN1 221111Z 02008KT 07/07 A3031 RMK A01 T00730067  RH  097%=      5-min Rain = 0
KEN1 221112Z 02008KT 07/07 A3031 RMK A01 T00730068  RH  097%=      5-min Rain = 0
KEN1 221113Z 02008KT 07/07 A3031 RMK A01 T00730068  RH  097%=      5-min Rain = 0
KEN1 221114Z 02009KT 07/07 A3031 RMK A01 T00720068  RH  097%=      5-min Rain = 0
KEN1 221115Z 02008KT 07/07 A3031 RMK A01 T00730068  RH  097%=      5-min Rain = 0
KEN1 221116Z 01008KT 07/07 A3031 RMK A01 T00730068  RH  097%=      5-min Rain = 0
KEN1 221117Z 02007KT 07/07 A3031 RMK A01 T00730068  RH  097%=      5-min Rain = 0
KEN1 221118Z 02008KT 07/07 A3031 RMK A01 T00720068  RH  097%=      5-min Rain = 0
KEN1 221119Z 02010KT 07/07 A3031 RMK A01 T00720068  RH  097%=      5-min Rain = 0
KEN1 221120Z 02010KT 07/07 A3031 RMK A01 T00720068  RH  097%=      5-min Rain = 0
KEN1 221121Z 03011KT 07/07 A3031 RMK A01 T00720068  RH  097%=      5-min Rain = 0
KEN1 221122Z 03012KT 07/07 A3031 RMK A01 T00720068  RH  098%=      5-min Rain = 0
KEN1 221123Z 03010KT 07/07 A3031 RMK A01 T00730069  RH  098%=      5-min Rain = 0
KEN1 221124Z 02011KT 07/07 A3031 RMK A01 T00730069  RH  098%=      5-min Rain = 0
KEN1 221125Z 02011KT 07/07 A3031 RMK A01 T00730069  RH  098%=      5-min Rain = 0
KEN1 221126Z 02011KT 07/07 A3031 RMK A01 T00730069  RH  098%=      5-min Rain = 0
KEN1 221127Z 02009KT 07/07 A3031 RMK A01 T00730070  RH  098%=      5-min Rain = 0
KEN1 221128Z 02009KT 07/07 A3032 RMK A01 T00730070  RH  098%=      5-min Rain = 0
KEN1 221129Z 02010KT 07/07 A3032 RMK A01 T00730070  RH  098%=      5-min Rain = 0
KEN1 221130Z 01009KT 07/07 A3032 RMK A01 T00730070  RH  098%=      5-min Rain = 0
KEN1 221131Z 01010KT 07/07 A3032 RMK A01 T00730070  RH  098%=      5-min Rain = 0
KEN1 221132Z 01012KT 07/07 A3032 RMK A01 T00720068  RH  098%=      5-min Rain = 0
KEN1 221133Z 01011KT 07/07 A3032 RMK A01 T00710068  RH  098%=      5-min Rain = 0
KEN1 221134Z 01012KT 07/07 A3032 RMK A01 T00710068  RH  098%=      5-min Rain = 0
KEN1 221135Z 01011KT 07/07 A3032 RMK A01 T00710068  RH  098%=      5-min Rain = 0
KEN1 221136Z 02011KT 07/07 A3032 RMK A01 T00710068  RH  098%=      5-min Rain = 0
KEN1 221137Z 02013KT 07/07 A3032 RMK A01 T00710068  RH  098%=      5-min Rain = 0
KEN1 221138Z 02012KT 07/07 A3032 RMK A01 T00710068  RH  098%=      5-min Rain = 0
KEN1 221139Z 03011KT 07/07 A3032 RMK A01 T00710068  RH  098%=      5-min Rain = 0
KEN1 221140Z 02012KT 07/07 A3032 RMK A01 T00710068  RH  098%=      5-min Rain = 0
KEN1 221141Z 03012KT 07/07 A3032 RMK A01 T00710068  RH  098%=      5-min Rain = 0
KEN1 221142Z 03012KT 07/07 A3032 RMK A01 T00710068  RH  098%=      5-min Rain = 0
KEN1 221143Z 03012KT 07/07 A3032 RMK A01 T00710068  RH  098%=      5-min Rain = 0
KEN1 221144Z 03013KT 07/07 A3032 RMK A01 T00710069  RH  098%=      5-min Rain = 0
KEN1 221145Z 04011KT 07/07 A3033 RMK A01 T00710069  RH  098%=      5-min Rain = 0
KEN1 221146Z 03010KT 07/07 A3033 RMK A01 T00710069  RH  098%=      5-min Rain = 0
KEN1 221147Z 03012KT 07/07 A3033 RMK A01 T00720069  RH  098%=      5-min Rain = 0
KEN1 221148Z 04011KT 07/07 A3033 RMK A01 T00710069  RH  098%=      5-min Rain = 0
KEN1 221149Z 03013KT 07/07 A3033 RMK A01 T00720069  RH  098%=      5-min Rain = 0
KEN1 221150Z 03012KT 07/07 A3033 RMK A01 T00710069  RH  098%=      5-min Rain = 0
KEN1 221151Z 03011KT 07/07 A3033 RMK A01 T00720070  RH  098%=      5-min Rain = 0
KEN1 221152Z 03011KT 07/07 A3033 RMK A01 T00720070  RH  098%=      5-min Rain = 0
KEN1 221153Z 03010KT 07/07 A3033 RMK A01 T00720070  RH  098%=      5-min Rain = 0
KEN1 221154Z 03013KT 07/07 A3033 RMK A01 T00720070  RH  098%=      5-min Rain = 0
KEN1 221155Z 04013KT 07/07 A3033 RMK A01 T00720070  RH  098%=      5-min Rain = 0
KEN1 221156Z 03012KT 07/07 A3033 RMK A01 T00730070  RH  098%=      5-min Rain = 0
KEN1 221157Z 03012KT 07/07 A3033 RMK A01 T00730070  RH  098%=      5-min Rain = 0
KEN1 221158Z 03011KT 07/07 A3033 RMK A01 T00730070  RH  098%=      5-min Rain = 0
KEN1 221159Z 03013KT 07/07 A3033 RMK A01 T00720070  RH  098%=      5-min Rain = 0
KEN1 221200Z 03012KT 07/07 A3033 RMK A01 T00730070  RH  098%=      5-min Rain = 0
KEN1 221201Z 03011KT 07/07 A3033 RMK A01 T00720070  RH  098%=      5-min Rain = 0
KEN1 221202Z 02012KT 07/07 A3033 RMK A01 T00720070  RH  098%=      5-min Rain = 0
KEN1 221203Z 03014KT 07/07 A3033 RMK A01 T00720070  RH  098%=      5-min Rain = 0
KEN1 221204Z 03015KT 07/07 A3033 RMK A01 T00720070  RH  098%=      5-min Rain = 0
KEN1 221205Z 03014G22KT 07/07 A3033 RMK A01 T00720070  RH  098%=      5-min Rain = 0
KEN1 221206Z 03018KT 07/07 A3033 RMK A01 T00720070  RH  098%=      5-min Rain = 0
KEN1 221207Z 02017KT 07/07 A3034 RMK A01 T00720070  RH  098%=      5-min Rain = 0
KEN1 221208Z 02017G22KT 07/07 A3034 RMK A01 T00710068  RH  098%=      5-min Rain = 0
KEN1 221209Z 02017KT 07/07 A3034 RMK A01 T00700067  RH  098%=      5-min Rain = 0
KEN1 221210Z 03017KT 07/07 A3034 RMK A01 T00690066  RH  098%=      5-min Rain = 0
KEN1 221211Z 02020KT 07/07 A3034 RMK A01 T00680065  RH  098%=      5-min Rain = 0
KEN1 221212Z 03018KT 07/06 A3034 RMK A01 T00660063  RH  098%=      5-min Rain = 0
KEN1 221213Z 03019KT 07/06 A3034 RMK A01 T00660063  RH  098%=      5-min Rain = 0
KEN1 221214Z 02019KT 07/06 A3034 RMK A01 T00650062  RH  098%=      5-min Rain = 0
KEN1 221215Z 03017KT 06/06 A3034 RMK A01 T00640061  RH  098%=      5-min Rain = 0
KEN1 221216Z 03018KT 06/06 A3034 RMK A01 T00640060  RH  098%=      5-min Rain = 0
KEN1 221217Z 03017KT 06/06 A3034 RMK A01 T00630060  RH  098%=      5-min Rain = 0
KEN1 221218Z 03016KT 06/06 A3034 RMK A01 T00630060  RH  098%=      5-min Rain = 0
KEN1 221219Z 03017KT 06/06 A3034 RMK A01 T00630059  RH  098%=      5-min Rain = 0
KEN1 221220Z 03015KT 06/06 A3034 RMK A01 T00630059  RH  098%=      5-min Rain = 0
KEN1 221221Z 03016KT 06/06 A3034 RMK A01 T00630059  RH  098%=      5-min Rain = 0
KEN1 221222Z 03016KT 06/06 A3034 RMK A01 T00620058  RH  098%=      5-min Rain = 0
KEN1 221223Z 03018KT 06/06 A3034 RMK A01 T00620058  RH  098%=      5-min Rain = 0
KEN1 221224Z 03014KT 06/06 A3035 RMK A01 T00620058  RH  098%=      5-min Rain = 0
KEN1 221225Z 03016KT 06/06 A3035 RMK A01 T00620058  RH  098%=      5-min Rain = 0
KEN1 221226Z 03015KT 06/06 A3035 RMK A01 T00610057  RH  098%=      5-min Rain = 0
KEN1 221227Z 03012KT 06/06 A3035 RMK A01 T00610057  RH  098%=      5-min Rain = 0
KEN1 221228Z 03013G18KT 06/06 A3035 RMK A01 T00610057  RH  098%=      5-min Rain = 0
KEN1 221229Z 03017KT 06/06 A3035 RMK A01 T00610058  RH  098%=      5-min Rain = 0
KEN1 221230Z 03016KT 06/06 A3035 RMK A01 T00610057  RH  098%=      5-min Rain = 0
KEN1 221231Z 03015KT 06/06 A3035 RMK A01 T00610057  RH  098%=      5-min Rain = 0
KEN1 221232Z 03017KT 06/06 A3035 RMK A01 T00610058  RH  098%=      5-min Rain = 0
KEN1 221233Z 03014G19KT 06/06 A3035 RMK A01 T00600057  RH  098%=      5-min Rain = 0
KEN1 221234Z 03015KT 06/06 A3035 RMK A01 T00600057  RH  098%=      5-min Rain = 0
KEN1 221235Z 04016KT 06/06 A3035 RMK A01 T00600056  RH  098%=      5-min Rain = 0
KEN1 221236Z 03015G20KT 06/06 A3035 RMK A01 T00590056  RH  098%=      5-min Rain = 0
KEN1 221237Z 03015KT 06/06 A3035 RMK A01 T00590056  RH  098%=      5-min Rain = 0
KEN1 221238Z 03015KT 06/06 A3035 RMK A01 T00590056  RH  098%=      5-min Rain = 0
KEN1 221239Z 04015KT 06/06 A3035 RMK A01 T00590055  RH  098%=      5-min Rain = 0
KEN1 221240Z 03015KT 06/06 A3036 RMK A01 T00590056  RH  098%=      5-min Rain = 0
KEN1 221241Z 03014KT 06/06 A3036 RMK A01 T00590056  RH  098%=      5-min Rain = 0
KEN1 221242Z 03016KT 06/06 A3036 RMK A01 T00590056  RH  098%=      5-min Rain = 0
KEN1 221243Z 03015KT 06/06 A3036 RMK A01 T00590055  RH  098%=      5-min Rain = 0
KEN1 221244Z 03017KT 06/06 A3036 RMK A01 T00590055  RH  098%=      5-min Rain = 0
KEN1 221245Z 03017KT 06/06 A3036 RMK A01 T00590056  RH  098%=      5-min Rain = 0
KEN1 221246Z 03016KT 06/06 A3036 RMK A01 T00580055  RH  098%=      5-min Rain = 0
KEN1 221247Z 03016KT 06/06 A3036 RMK A01 T00580055  RH  098%=      5-min Rain = 0
KEN1 221248Z 02018KT 06/06 A3036 RMK A01 T00580055  RH  098%=      5-min Rain = 0
KEN1 221249Z 02017KT 06/06 A3036 RMK A01 T00580055  RH  098%=      5-min Rain = 0
KEN1 221250Z 02015KT 06/06 A3036 RMK A01 T00580055  RH  098%=      5-min Rain = 0
KEN1 221251Z 02015KT 06/05 A3036 RMK A01 T00570054  RH  098%=      5-min Rain = 0
KEN1 221252Z 02013KT 06/05 A3036 RMK A01 T00570054  RH  098%=      5-min Rain = 0
KEN1 221253Z 02017KT 06/05 A3036 RMK A01 T00570054  RH  098%=      5-min Rain = 0
KEN1 221254Z 02018KT 06/05 A3036 RMK A01 T00560053  RH  098%=      5-min Rain = 0
KEN1 221255Z 03015KT 06/05 A3036 RMK A01 T00560053  RH  098%=      5-min Rain = 0
KEN1 221256Z 02015KT 06/05 A3037 RMK A01 T00560052  RH  098%=      5-min Rain = 0
KEN1 221257Z 02015KT 06/05 A3037 RMK A01 T00560052  RH  098%=      5-min Rain = 0
KEN1 221258Z 02015KT 06/05 A3037 RMK A01 T00560052  RH  098%=      5-min Rain = 0
KEN1 221259Z 02013KT 06/05 A3037 RMK A01 T00550052  RH  098%=      5-min Rain = 0
KEN1 221300Z 02014KT 06/05 A3037 RMK A01 T00550052  RH  098%=      5-min Rain = 0
KEN1 221301Z 02014KT 06/05 A3037 RMK A01 T00550052  RH  098%=      5-min Rain = 0
KEN1 221302Z 02011KT 06/05 A3037 RMK A01 T00550052  RH  098%=      5-min Rain = 0
KEN1 221303Z 02010KT 05/05 A3037 RMK A01 T00540051  RH  098%=      5-min Rain = 0
KEN1 221304Z 02010KT 06/05 A3037 RMK A01 T00550052  RH  098%=      5-min Rain = 0
KEN1 221305Z 03009KT 06/05 A3037 RMK A01 T00550052  RH  098%=      5-min Rain = 0
KEN1 221306Z 03012KT 06/05 A3037 RMK A01 T00550052  RH  098%=      5-min Rain = 0
KEN1 221307Z 02013KT 05/05 A3037 RMK A01 T00540052  RH  098%=      5-min Rain = 0
KEN1 221308Z 02012KT 05/05 A3037 RMK A01 T00540051  RH  098%=      5-min Rain = 0
KEN1 221309Z 03012KT 05/05 A3037 RMK A01 T00540051  RH  098%=      5-min Rain = 0
KEN1 221310Z 03015KT 05/05 A3037 RMK A01 T00530051  RH  098%=      5-min Rain = 0
KEN1 221311Z 03015KT 05/05 A3037 RMK A01 T00530051  RH  098%=      5-min Rain = 0
KEN1 221312Z 02015KT 05/05 A3038 RMK A01 T00530050  RH  098%=      5-min Rain = 0
KEN1 221313Z 02015KT 05/05 A3038 RMK A01 T00530050  RH  098%=      5-min Rain = 0
KEN1 221314Z 03017KT 05/05 A3038 RMK A01 T00520050  RH  098%=      5-min Rain = 0
KEN1 221315Z 03015KT 05/05 A3038 RMK A01 T00520049  RH  098%=      5-min Rain = 0
KEN1 221316Z 03012KT 05/05 A3038 RMK A01 T00520049  RH  098%=      5-min Rain = 0
KEN1 221317Z 03015KT 05/05 A3038 RMK A01 T00520049  RH  098%=      5-min Rain = 0
KEN1 221318Z 03017KT 05/05 A3038 RMK A01 T00520049  RH  098%=      5-min Rain = 0
KEN1 221319Z 03014KT 05/05 A3038 RMK A01 T00520049  RH  098%=      5-min Rain = 0
KEN1 221320Z 03015KT 05/05 A3038 RMK A01 T00510049  RH  098%=      5-min Rain = 0
KEN1 221321Z 03015KT 05/05 A3038 RMK A01 T00510049  RH  098%=      5-min Rain = 0
KEN1 221322Z 04013KT 05/05 A3038 RMK A01 T00510049  RH  098%=      5-min Rain = 0
KEN1 221323Z 03012G17KT 05/05 A3039 RMK A01 T00510049  RH  098%=      5-min Rain = 0
KEN1 221324Z 03014KT 05/05 A3039 RMK A01 T00520049  RH  098%=      5-min Rain = 0
KEN1 221325Z 03015KT 05/05 A3039 RMK A01 T00510049  RH  098%=      5-min Rain = 0
KEN1 221326Z 02017KT 05/05 A3039 RMK A01 T00510049  RH  098%=      5-min Rain = 0
KEN1 221327Z 03015KT 05/05 A3039 RMK A01 T00510048  RH  098%=      5-min Rain = 0
KEN1 221328Z 03017KT 05/05 A3039 RMK A01 T00510048  RH  098%=      5-min Rain = 0
KEN1 221329Z 03015KT 05/05 A3039 RMK A01 T00510048  RH  098%=      5-min Rain = 0
KEN1 221330Z 03016KT 05/05 A3039 RMK A01 T00510048  RH  098%=      5-min Rain = 0
KEN1 221331Z 03016KT 05/05 A3039 RMK A01 T00510048  RH  098%=      5-min Rain = 0
KEN1 221332Z 03015KT 05/05 A3039 RMK A01 T00510048  RH  098%=      5-min Rain = 0
KEN1 221333Z 03017KT 05/05 A3039 RMK A01 T00510048  RH  098%=      5-min Rain = 0
KEN1 221334Z 03014G19KT 05/05 A3039 RMK A01 T00500047  RH  098%=      5-min Rain = 0
KEN1 221335Z 03016KT 05/05 A3039 RMK A01 T00510048  RH  098%=      5-min Rain = 0
KEN1 221336Z 02014KT 05/05 A3039 RMK A01 T00510048  RH  098%=      5-min Rain = 0
KEN1 221337Z 02014KT 05/05 A3039 RMK A01 T00510047  RH  098%=      5-min Rain = 0
KEN1 221338Z 02013KT 05/05 A3039 RMK A01 T00510047  RH  098%=      5-min Rain = 0
KEN1 221339Z 02013KT 05/05 A3039 RMK A01 T00500047  RH  098%=      5-min Rain = 0
KEN1 221340Z 02011KT 05/05 A304 RMK A01 T00510047  RH  098%=      5-min Rain = 0
KEN1 221341Z 03013KT 05/05 A304 RMK A01 T00510047  RH  098%=      5-min Rain = 0
KEN1 221342Z 02012KT 05/05 A304 RMK A01 T00510047  RH  098%=      5-min Rain = 0
KEN1 221343Z 03012KT 05/05 A304 RMK A01 T00510047  RH  098%=      5-min Rain = 0
KEN1 221344Z 03011KT 05/05 A304 RMK A01 T00500047  RH  098%=      5-min Rain = 0
KEN1 221345Z 02012KT 05/05 A304 RMK A01 T00510047  RH  098%=      5-min Rain = 0
KEN1 221346Z 03012KT 05/05 A304 RMK A01 T00500047  RH  098%=      5-min Rain = 0
KEN1 221347Z 03012KT 05/05 A304 RMK A01 T00500047  RH  098%=      5-min Rain = 0
KEN1 221348Z 03012KT 05/05 A304 RMK A01 T00510047  RH  098%=      5-min Rain = 0
KEN1 221349Z 03013KT 05/05 A304 RMK A01 T00500047  RH  098%=      5-min Rain = 0
KEN1 221350Z 04012KT 05/05 A304 RMK A01 T00500047  RH  098%=      5-min Rain = 0
KEN1 221351Z 03014KT 05/05 A304 RMK A01 T00500047  RH  098%=      5-min Rain = 0
KEN1 221352Z 04013KT 05/05 A304 RMK A01 T00510048  RH  098%=      5-min Rain = 0
KEN1 221353Z 03015KT 05/05 A304 RMK A01 T00510047  RH  098%=      5-min Rain = 0
KEN1 221354Z 04014KT 05/05 A304 RMK A01 T00500047  RH  098%=      5-min Rain = 0
KEN1 221355Z 04015KT 05/05 A304 RMK A01 T00500047  RH  098%=      5-min Rain = 0
KEN1 221356Z 03014KT 05/05 A304 RMK A01 T00500047  RH  098%=      5-min Rain = 0
KEN1 221357Z 03014KT 05/05 A304 RMK A01 T00500047  RH  098%=      5-min Rain = 0
KEN1 221358Z 03015KT 05/05 A304 RMK A01 T00500047  RH  098%=      5-min Rain = 0
KEN1 221359Z 03014KT 05/05 A304 RMK A01 T00500047  RH  098%=      5-min Rain = 0
KEN1 221400Z 03013KT 05/05 A304 RMK A01 T00500046  RH  098%=      5-min Rain = 0
KEN1 221401Z 03014KT 05/05 A304 RMK A01 T00500046  RH  098%=      5-min Rain = 0
KEN1 221402Z 03013KT 05/05 A304 RMK A01 T00500046  RH  098%=      5-min Rain = 0
KEN1 221403Z 03012KT 05/05 A304 RMK A01 T00490046  RH  098%=      5-min Rain = 0
KEN1 221404Z 03012KT 05/05 A304 RMK A01 T00500046  RH  098%=      5-min Rain = 0
KEN1 221405Z 03011KT 05/05 A304 RMK A01 T00500046  RH  098%=      5-min Rain = 0
KEN1 221406Z 04012KT 05/05 A304 RMK A01 T00490046  RH  098%=      5-min Rain = 0
KEN1 221407Z 04011KT 05/05 A3041 RMK A01 T00500046  RH  098%=      5-min Rain = 0
KEN1 221408Z 03011KT 05/05 A3041 RMK A01 T00490046  RH  097%=      5-min Rain = 0
KEN1 221409Z 03011KT 05/05 A3041 RMK A01 T00490046  RH  097%=      5-min Rain = 0
KEN1 221410Z 03011KT 05/05 A3041 RMK A01 T00500046  RH  097%=      5-min Rain = 0
KEN1 221411Z 04011KT 05/05 A3041 RMK A01 T00490046  RH  097%=      5-min Rain = 0
KEN1 221412Z 04013KT 05/05 A3041 RMK A01 T00490046  RH  097%=      5-min Rain = 0
KEN1 221413Z 04013KT 05/05 A3041 RMK A01 T00490046  RH  097%=      5-min Rain = 0
KEN1 221414Z 03013KT 05/05 A3041 RMK A01 T00500046  RH  097%=      5-min Rain = 0
KEN1 221415Z 03011KT 05/05 A3041 RMK A01 T00500046  RH  097%=      5-min Rain = 0
KEN1 221416Z 03011KT 05/05 A3041 RMK A01 T00490045  RH  097%=      5-min Rain = 0
KEN1 221417Z 03013KT 05/05 A3041 RMK A01 T00490045  RH  097%=      5-min Rain = 0
KEN1 221418Z 02011KT 05/05 A3042 RMK A01 T00500045  RH  097%=      5-min Rain = 0
KEN1 221419Z 03012KT 05/05 A3042 RMK A01 T00500045  RH  097%=      5-min Rain = 0
KEN1 221420Z 03012KT 05/05 A3042 RMK A01 T00500045  RH  097%=      5-min Rain = 0
KEN1 221421Z 03013KT 05/05 A3042 RMK A01 T00500045  RH  097%=      5-min Rain = 0
KEN1 221422Z 03014KT 05/05 A3042 RMK A01 T00500045  RH  097%=      5-min Rain = 0
KEN1 221423Z 03012KT 05/05 A3042 RMK A01 T00500045  RH  097%=      5-min Rain = 0
KEN1 221424Z 03011KT 05/05 A3042 RMK A01 T00490045  RH  097%=      5-min Rain = 0
KEN1 221425Z 03012KT 05/05 A3042 RMK A01 T00500045  RH  097%=      5-min Rain = 0
KEN1 221426Z 03010KT 05/05 A3042 RMK A01 T00490045  RH  097%=      5-min Rain = 0
KEN1 221427Z 03011KT 05/04 A3042 RMK A01 T00490044  RH  097%=      5-min Rain = 0
KEN1 221428Z 03010KT 05/05 A3042 RMK A01 T00500045  RH  097%=      5-min Rain = 0
KEN1 221429Z 03010KT 05/05 A3042 RMK A01 T00490045  RH  097%=      5-min Rain = 0
KEN1 221430Z 03009KT 05/05 A3042 RMK A01 T00500045  RH  097%=      5-min Rain = 0
KEN1 221431Z 04009KT 05/05 A3042 RMK A01 T00490045  RH  097%=      5-min Rain = 0
KEN1 221432Z 04010KT 05/05 A3042 RMK A01 T00490045  RH  097%=      5-min Rain = 0
KEN1 221433Z 04011KT 05/05 A3042 RMK A01 T00500045  RH  097%=      5-min Rain = 0
KEN1 221434Z 03010KT 05/05 A3042 RMK A01 T00500045  RH  097%=      5-min Rain = 0
KEN1 221435Z 03011KT 05/05 A3042 RMK A01 T00500045  RH  097%=      5-min Rain = 0
KEN1 221436Z 03011KT 05/05 A3042 RMK A01 T00500045  RH  097%=      5-min Rain = 0
KEN1 221437Z 03010KT 05/05 A3042 RMK A01 T00500045  RH  097%=      5-min Rain = 0
KEN1 221438Z 03011KT 05/05 A3042 RMK A01 T00490045  RH  097%=      5-min Rain = 0
KEN1 221439Z 03010KT 05/05 A3042 RMK A01 T00500045  RH  097%=      5-min Rain = 0
KEN1 221440Z 03012KT 05/05 A3042 RMK A01 T00500045  RH  097%=      5-min Rain = 0
KEN1 221441Z 03012KT 05/05 A3042 RMK A01 T00500045  RH  097%=      5-min Rain = 0
KEN1 221442Z 03013KT 05/05 A3042 RMK A01 T00500045  RH  097%=      5-min Rain = 0
KEN1 221443Z 03013KT 05/05 A3042 RMK A01 T00490045  RH  097%=      5-min Rain = 0
KEN1 221444Z 03014KT 05/05 A3042 RMK A01 T00500045  RH  097%=      5-min Rain = 0
KEN1 221445Z 03012KT 05/05 A3042 RMK A01 T00490045  RH  097%=      5-min Rain = 0
KEN1 221446Z 04010KT 05/05 A3043 RMK A01 T00500045  RH  097%=      5-min Rain = 0
KEN1 221447Z 04010KT 05/05 A3043 RMK A01 T00500045  RH  097%=      5-min Rain = 0
KEN1 221448Z 04009KT 05/05 A3043 RMK A01 T00490045  RH  097%=      5-min Rain = 0
KEN1 221449Z 04009KT 05/05 A3043 RMK A01 T00500045  RH  097%=      5-min Rain = 0
KEN1 221450Z 04010KT 05/05 A3043 RMK A01 T00490045  RH  097%=      5-min Rain = 0
KEN1 221451Z 04011KT 05/05 A3043 RMK A01 T00500045  RH  097%=      5-min Rain = 0
KEN1 221452Z 04010KT 05/05 A3043 RMK A01 T00490045  RH  097%=      5-min Rain = 0
KEN1 221453Z 04012KT 05/05 A3043 RMK A01 T00500045  RH  097%=      5-min Rain = 0
KEN1 221454Z 05011KT 05/05 A3043 RMK A01 T00500045  RH  097%=      5-min Rain = 0
KEN1 221455Z 05010KT 05/05 A3043 RMK A01 T00500045  RH  096%=      5-min Rain = 0
KEN1 221456Z 04011KT 05/05 A3042 RMK A01 T00500045  RH  096%=      5-min Rain = 0
KEN1 221457Z 05010KT 05/04 A3042 RMK A01 T00500044  RH  096%=      5-min Rain = 0
KEN1 221458Z 04010KT 05/05 A3043 RMK A01 T00510045  RH  096%=      5-min Rain = 0
KEN1 221459Z 04008KT 05/05 A3043 RMK A01 T00510045  RH  096%=      5-min Rain = 0
KEN1 221500Z 04010KT 05/05 A3043 RMK A01 T00510046  RH  096%=      5-min Rain = 0
KEN1 221501Z 04009KT 05/05 A3043 RMK A01 T00510045  RH  096%=      5-min Rain = 0
KEN1 221502Z 04010KT 05/05 A3043 RMK A01 T00510046  RH  096%=      5-min Rain = 0
KEN1 221503Z 04011KT 05/05 A3042 RMK A01 T00510045  RH  096%=      5-min Rain = 0
KEN1 221504Z 03011KT 05/05 A3042 RMK A01 T00500045  RH  096%=      5-min Rain = 0
KEN1 221505Z 03010KT 05/05 A3043 RMK A01 T00510045  RH  096%=      5-min Rain = 0
KEN1 221506Z 04011KT 05/05 A3042 RMK A01 T00500045  RH  096%=      5-min Rain = 0
KEN1 221507Z 04011KT 05/05 A3043 RMK A01 T00500045  RH  096%=      5-min Rain = 0
KEN1 221508Z 04010KT 05/05 A3043 RMK A01 T00510045  RH  096%=      5-min Rain = 0
KEN1 221509Z 03008KT 05/05 A3043 RMK A01 T00500045  RH  096%=      5-min Rain = 0
KEN1 221510Z 04011KT 05/05 A3042 RMK A01 T00510045  RH  096%=      5-min Rain = 0
KEN1 221511Z 04009KT 05/05 A3043 RMK A01 T00510045  RH  096%=      5-min Rain = 0
KEN1 221512Z 03009KT 05/05 A3043 RMK A01 T00510045  RH  096%=      5-min Rain = 0
KEN1 221513Z 03012KT 05/05 A3042 RMK A01 T00510045  RH  096%=      5-min Rain = 0
KEN1 221514Z 03009KT 05/05 A3042 RMK A01 T00510045  RH  096%=      5-min Rain = 0
KEN1 221515Z 03009KT 05/05 A3043 RMK A01 T00510045  RH  096%=      5-min Rain = 0
KEN1 221516Z 03010KT 05/05 A3043 RMK A01 T00510045  RH  096%=      5-min Rain = 0
KEN1 221517Z 03008KT 05/05 A3043 RMK A01 T00510045  RH  096%=      5-min Rain = 0
KEN1 221518Z 04008KT 05/05 A3043 RMK A01 T00510046  RH  096%=      5-min Rain = 0
KEN1 221519Z 04008KT 05/05 A3043 RMK A01 T00520046  RH  096%=      5-min Rain = 0
KEN1 221520Z 03009KT 05/05 A3043 RMK A01 T00520046  RH  096%=      5-min Rain = 0
KEN1 221521Z 03008KT 05/05 A3043 RMK A01 T00520046  RH  096%=      5-min Rain = 0
KEN1 221522Z 03008KT 05/05 A3043 RMK A01 T00520047  RH  096%=      5-min Rain = 0
KEN1 221523Z 04009KT 05/05 A3043 RMK A01 T00520047  RH  096%=      5-min Rain = 0
KEN1 221524Z 04009KT 05/05 A3043 RMK A01 T00520047  RH  096%=      5-min Rain = 0
KEN1 221525Z 04008KT 05/05 A3043 RMK A01 T00520046  RH  096%=      5-min Rain = 0
KEN1 221526Z 04008KT 05/05 A3043 RMK A01 T00520047  RH  096%=      5-min Rain = 0
KEN1 221527Z 03008KT 05/05 A3043 RMK A01 T00520046  RH  096%=      5-min Rain = 0
KEN1 221528Z 03009KT 05/05 A3043 RMK A01 T00520046  RH  096%=      5-min Rain = 0
KEN1 221529Z 03010KT 05/05 A3043 RMK A01 T00520046  RH  096%=      5-min Rain = 0
KEN1 221530Z 03011KT 05/05 A3043 RMK A01 T00520046  RH  096%=      5-min Rain = 0
KEN1 221531Z 03008KT 05/05 A3043 RMK A01 T00520046  RH  096%=      5-min Rain = 0
KEN1 221532Z 04007KT 05/05 A3043 RMK A01 T00520047  RH  096%=      5-min Rain = 0
KEN1 221533Z 03009KT 05/05 A3043 RMK A01 T00520047  RH  096%=      5-min Rain = 0
KEN1 221534Z 04010KT 05/05 A3043 RMK A01 T00520047  RH  096%=      5-min Rain = 0
KEN1 221535Z 04010KT 05/05 A3043 RMK A01 T00520046  RH  096%=      5-min Rain = 0
KEN1 221536Z 03011KT 05/05 A3043 RMK A01 T00520046  RH  096%=      5-min Rain = 0
KEN1 221537Z 04010KT 05/05 A3043 RMK A01 T00520046  RH  096%=      5-min Rain = 0
KEN1 221538Z 03009KT 05/05 A3043 RMK A01 T00520046  RH  096%=      5-min Rain = 0
KEN1 221539Z 03009KT 05/05 A3043 RMK A01 T00520047  RH  096%=      5-min Rain = 0
KEN1 221540Z 03010KT 05/05 A3043 RMK A01 T00520047  RH  096%=      5-min Rain = 0
KEN1 221541Z 04008KT 05/05 A3043 RMK A01 T00520046  RH  096%=      5-min Rain = 0
KEN1 221542Z 04010KT 05/05 A3043 RMK A01 T00520047  RH  096%=      5-min Rain = 0
KEN1 221543Z 04009KT 05/05 A3043 RMK A01 T00520046  RH  096%=      5-min Rain = 0
KEN1 221544Z 04009KT 05/05 A3043 RMK A01 T00520046  RH  096%=      5-min Rain = 0
KEN1 221545Z 03009KT 05/05 A3043 RMK A01 T00520047  RH  096%=      5-min Rain = 0
KEN1 221546Z 03007KT 05/05 A3043 RMK A01 T00520046  RH  096%=      5-min Rain = 0
KEN1 221547Z 03008KT 05/05 A3043 RMK A01 T00530047  RH  096%=      5-min Rain = 0
KEN1 221548Z 04009KT 05/05 A3043 RMK A01 T00530047  RH  096%=      5-min Rain = 0
KEN1 221549Z 04009KT 05/05 A3043 RMK A01 T00530047  RH  096%=      5-min Rain = 0
KEN1 221550Z 03008KT 05/05 A3043 RMK A01 T00530047  RH  096%=      5-min Rain = 0
KEN1 221551Z 03009KT 05/05 A3043 RMK A01 T00530046  RH  096%=      5-min Rain = 0
KEN1 221552Z 04009KT 05/05 A3043 RMK A01 T00530047  RH  096%=      5-min Rain = 0
KEN1 221553Z 03009KT 05/05 A3043 RMK A01 T00530046  RH  096%=      5-min Rain = 0
KEN1 221554Z 03007KT 05/05 A3043 RMK A01 T00530046  RH  096%=      5-min Rain = 0
KEN1 221555Z 04009KT 05/05 A3043 RMK A01 T00530047  RH  096%=      5-min Rain = 0
KEN1 221556Z 04009KT 05/05 A3043 RMK A01 T00530047  RH  095%=      5-min Rain = 0
KEN1 221557Z 03007KT 05/05 A3043 RMK A01 T00540047  RH  095%=      5-min Rain = 0
KEN1 221558Z 03009KT 05/05 A3043 RMK A01 T00540047  RH  095%=      5-min Rain = 0
KEN1 221559Z 03007KT 05/05 A3043 RMK A01 T00540047  RH  095%=      5-min Rain = 0
KEN1 221600Z 03006KT 05/05 A3043 RMK A01 T00540047  RH  095%=      5-min Rain = 0
KEN1 221601Z 03007KT 05/05 A3043 RMK A01 T00540047  RH  095%=      5-min Rain = 0
KEN1 221602Z 03008KT 05/05 A3043 RMK A01 T00540047  RH  095%=      5-min Rain = 0
KEN1 221603Z 03008KT 05/05 A3043 RMK A01 T00540047  RH  095%=      5-min Rain = 0
KEN1 221604Z 03007KT 05/05 A3043 RMK A01 T00540046  RH  095%=      5-min Rain = 0
KEN1 221605Z 03007KT 05/05 A3043 RMK A01 T00540046  RH  095%=      5-min Rain = 0
KEN1 221606Z 03007KT 05/05 A3043 RMK A01 T00540046  RH  095%=      5-min Rain = 0
KEN1 221607Z 03007KT 05/05 A3043 RMK A01 T00540047  RH  095%=      5-min Rain = 0
KEN1 221608Z 03006KT 05/05 A3043 RMK A01 T00540047  RH  095%=      5-min Rain = 0
KEN1 221609Z 03005KT 06/05 A3043 RMK A01 T00550048  RH  095%=      5-min Rain = 0
KEN1 221610Z 04008KT 06/05 A3043 RMK A01 T00550048  RH  095%=      5-min Rain = 0
KEN1 221611Z 04008KT 06/05 A3043 RMK A01 T00550047  RH  095%=      5-min Rain = 0
KEN1 221612Z 03008KT 05/05 A3043 RMK A01 T00540047  RH  095%=      5-min Rain = 0
KEN1 221613Z 04008KT 06/05 A3043 RMK A01 T00550047  RH  095%=      5-min Rain = 0
KEN1 221614Z 03008KT 06/05 A3043 RMK A01 T00550047  RH  095%=      5-min Rain = 0
KEN1 221615Z 04008KT 06/05 A3044 RMK A01 T00550047  RH  095%=      5-min Rain = 0
KEN1 221616Z 04007KT 06/05 A3044 RMK A01 T00550047  RH  095%=      5-min Rain = 0
KEN1 221617Z 03005KT 06/05 A3044 RMK A01 T00550047  RH  095%=      5-min Rain = 0
KEN1 221618Z 02005KT 06/05 A3044 RMK A01 T00550048  RH  095%=      5-min Rain = 0
KEN1 221619Z 03007KT 06/05 A3044 RMK A01 T00560049  RH  095%=      5-min Rain = 0
KEN1 221620Z 03007KT 06/05 A3044 RMK A01 T00560048  RH  095%=      5-min Rain = 0
KEN1 221621Z 03006KT 06/05 A3044 RMK A01 T00560048  RH  095%=      5-min Rain = 0
KEN1 221622Z 03007KT 06/05 A3044 RMK A01 T00550048  RH  095%=      5-min Rain = 0
KEN1 221623Z 03006KT 06/05 A3044 RMK A01 T00560048  RH  095%=      5-min Rain = 0
KEN1 221624Z 03007KT 06/05 A3044 RMK A01 T00560048  RH  095%=      5-min Rain = 0
KEN1 221625Z 04007KT 06/05 A3044 RMK A01 T00560048  RH  094%=      5-min Rain = 0
KEN1 221626Z 03007KT 06/05 A3044 RMK A01 T00560048  RH  094%=      5-min Rain = 0
KEN1 221627Z 03006KT 06/05 A3044 RMK A01 T00560047  RH  094%=      5-min Rain = 0
KEN1 221628Z 04006KT 06/05 A3044 RMK A01 T00560048  RH  094%=      5-min Rain = 0
KEN1 221629Z 03007KT 06/05 A3044 RMK A01 T00560048  RH  095%=      5-min Rain = 0
KEN1 221630Z 03008KT 06/05 A3044 RMK A01 T00570049  RH  095%=      5-min Rain = 0
KEN1 221631Z 03006KT 06/05 A3044 RMK A01 T00560048  RH  094%=      5-min Rain = 0
KEN1 221632Z 03007KT 06/05 A3044 RMK A01 T00570049  RH  094%=      5-min Rain = 0
KEN1 221633Z 03009KT 06/05 A3044 RMK A01 T00570049  RH  095%=      5-min Rain = 0
KEN1 221634Z 04009KT 06/05 A3044 RMK A01 T00570048  RH  094%=      5-min Rain = 0
KEN1 221635Z 03008KT 06/05 A3044 RMK A01 T00570048  RH  094%=      5-min Rain = 0
KEN1 221636Z 03009KT 06/05 A3044 RMK A01 T00570048  RH  094%=      5-min Rain = 0
KEN1 221637Z 04009KT 06/05 A3044 RMK A01 T00570048  RH  094%=      5-min Rain = 0
KEN1 221638Z 03008KT 06/05 A3044 RMK A01 T00560047  RH  094%=      5-min Rain = 0
KEN1 221639Z 03009KT 06/05 A3044 RMK A01 T00570047  RH  094%=      5-min Rain = 0
KEN1 221640Z 04009KT 06/05 A3044 RMK A01 T00560047  RH  094%=      5-min Rain = 0
KEN1 221641Z 04008KT 06/05 A3044 RMK A01 T00570047  RH  094%=      5-min Rain = 0
KEN1 221642Z 04009KT 06/05 A3044 RMK A01 T00560047  RH  094%=      5-min Rain = 0
KEN1 221643Z 04009KT 06/05 A3044 RMK A01 T00570047  RH  094%=      5-min Rain = 0
KEN1 221644Z 04008KT 06/05 A3044 RMK A01 T00570047  RH  093%=      5-min Rain = 0
KEN1 221645Z 04008KT 06/05 A3044 RMK A01 T00560047  RH  094%=      5-min Rain = 0
KEN1 221646Z 04007KT 06/05 A3044 RMK A01 T00560047  RH  094%=      5-min Rain = 0
KEN1 221647Z 04008KT 06/05 A3044 RMK A01 T00570048  RH  094%=      5-min Rain = 0
KEN1 221648Z 04008KT 06/05 A3044 RMK A01 T00570048  RH  094%=      5-min Rain = 0
KEN1 221649Z 04010KT 06/05 A3044 RMK A01 T00570048  RH  094%=      5-min Rain = 0
KEN1 221650Z 04009KT 06/05 A3044 RMK A01 T00570048  RH  094%=      5-min Rain = 0
KEN1 221651Z 04008KT 06/05 A3044 RMK A01 T00570048  RH  094%=      5-min Rain = 0
KEN1 221652Z 04010KT 06/05 A3044 RMK A01 T00570048  RH  094%=      5-min Rain = 0
KEN1 221653Z 04008KT 06/05 A3044 RMK A01 T00570048  RH  094%=      5-min Rain = 0
KEN1 221654Z 04009KT 06/05 A3044 RMK A01 T00570048  RH  094%=      5-min Rain = 0
KEN1 221655Z 04009KT 06/05 A3044 RMK A01 T00570048  RH  094%=      5-min Rain = 0
KEN1 221656Z 03010KT 06/05 A3044 RMK A01 T00570048  RH  094%=      5-min Rain = 0
KEN1 221657Z 03011KT 06/05 A3044 RMK A01 T00570047  RH  094%=      5-min Rain = 0
KEN1 221658Z 03010KT 06/05 A3044 RMK A01 T00570047  RH  093%=      5-min Rain = 0
KEN1 221659Z 04010KT 06/05 A3044 RMK A01 T00570047  RH  093%=      5-min Rain = 0
KEN1 221700Z 04010KT 06/05 A3044 RMK A01 T00570047  RH  093%=      5-min Rain = 0
KEN1 221701Z 04011KT 06/05 A3044 RMK A01 T00570047  RH  094%=      5-min Rain = 0
KEN1 221702Z 03008KT 06/05 A3044 RMK A01 T00570047  RH  094%=      5-min Rain = 0
KEN1 221703Z 03009KT 06/05 A3045 RMK A01 T00570048  RH  094%=      5-min Rain = 0
KEN1 221704Z 04010KT 06/05 A3045 RMK A01 T00570048  RH  094%=      5-min Rain = 0
KEN1 221705Z 03010KT 06/05 A3045 RMK A01 T00580048  RH  094%=      5-min Rain = 0
KEN1 221706Z 03009KT 06/05 A3045 RMK A01 T00570048  RH  093%=      5-min Rain = 0
KEN1 221707Z 03009KT 06/05 A3045 RMK A01 T00580048  RH  094%=      5-min Rain = 0
KEN1 221708Z 03011KT 06/05 A3045 RMK A01 T00580049  RH  094%=      5-min Rain = 0
KEN1 221709Z 03011KT 06/05 A3044 RMK A01 T00580048  RH  093%=      5-min Rain = 0
KEN1 221710Z 04008KT 06/05 A3044 RMK A01 T00580048  RH  093%=      5-min Rain = 0
KEN1 221711Z 04009KT 06/05 A3045 RMK A01 T00580048  RH  094%=      5-min Rain = 0
KEN1 221712Z 04010KT 06/05 A3044 RMK A01 T00580049  RH  094%=      5-min Rain = 0
KEN1 221713Z 04009KT 06/05 A3044 RMK A01 T00580049  RH  094%=      5-min Rain = 0
KEN1 221714Z 04008KT 06/05 A3044 RMK A01 T00590050  RH  094%=      5-min Rain = 0
KEN1 221715Z 04010KT 06/05 A3044 RMK A01 T00590050  RH  094%=      5-min Rain = 0
KEN1 221716Z 04009KT 06/05 A3044 RMK A01 T00590049  RH  094%=      5-min Rain = 0
KEN1 221717Z 04009KT 06/05 A3044 RMK A01 T00590049  RH  094%=      5-min Rain = 0
KEN1 221718Z 04010KT 06/05 A3044 RMK A01 T00590050  RH  094%=      5-min Rain = 0
KEN1 221719Z 04011KT 06/05 A3044 RMK A01 T00590049  RH  094%=      5-min Rain = 0
KEN1 221720Z 04010KT 06/05 A3044 RMK A01 T00590049  RH  093%=      5-min Rain = 0
KEN1 221721Z 04010KT 06/05 A3044 RMK A01 T00580048  RH  093%=      5-min Rain = 0
KEN1 221722Z 04009KT 06/05 A3044 RMK A01 T00580048  RH  093%=      5-min Rain = 0
KEN1 221723Z 04009KT 06/05 A3044 RMK A01 T00580049  RH  094%=      5-min Rain = 0
KEN1 221724Z 04010KT 06/05 A3044 RMK A01 T00590049  RH  094%=      5-min Rain = 0
KEN1 221725Z 04009KT 06/05 A3044 RMK A01 T00590049  RH  094%=      5-min Rain = 0
KEN1 221726Z 04009KT 06/05 A3044 RMK A01 T00590049  RH  094%=      5-min Rain = 0
KEN1 221727Z 04010KT 06/05 A3044 RMK A01 T00590050  RH  094%=      5-min Rain = 0
KEN1 221728Z 04010KT 06/05 A3044 RMK A01 T00590050  RH  094%=      5-min Rain = 0
KEN1 221729Z 04010KT 06/05 A3044 RMK A01 T00590050  RH  094%=      5-min Rain = 0
KEN1 221730Z 04008KT 06/05 A3044 RMK A01 T00590050  RH  094%=      5-min Rain = 0
KEN1 221731Z 04010KT 06/05 A3044 RMK A01 T00600051  RH  094%=      5-min Rain = 0
KEN1 221732Z 04012KT 06/05 A3044 RMK A01 T00600051  RH  094%=      5-min Rain = 0
KEN1 221733Z 04010KT 06/05 A3044 RMK A01 T00590049  RH  094%=      5-min Rain = 0
KEN1 221734Z 04013KT 06/05 A3044 RMK A01 T00590049  RH  094%=      5-min Rain = 0
KEN1 221735Z 04013KT 06/05 A3044 RMK A01 T00590049  RH  093%=      5-min Rain = 0
KEN1 221736Z 04013KT 06/05 A3044 RMK A01 T00590049  RH  093%=      5-min Rain = 0
KEN1 221737Z 04011KT 06/05 A3044 RMK A01 T00590048  RH  093%=      5-min Rain = 0
KEN1 221738Z 04010KT 06/05 A3044 RMK A01 T00590049  RH  093%=      5-min Rain = 0
KEN1 221739Z 04011KT 06/05 A3044 RMK A01 T00590049  RH  093%=      5-min Rain = 0
KEN1 221740Z 04010KT 06/05 A3045 RMK A01 T00590049  RH  093%=      5-min Rain = 0
KEN1 221741Z 04008KT 06/05 A3045 RMK A01 T00590049  RH  093%=      5-min Rain = 0
KEN1 221742Z 04008KT 06/05 A3045 RMK A01 T00600050  RH  094%=      5-min Rain = 0
KEN1 221743Z 04010KT 06/05 A3045 RMK A01 T00600051  RH  094%=      5-min Rain = 0
KEN1 221744Z 04010KT 06/05 A3045 RMK A01 T00600050  RH  094%=      5-min Rain = 0
KEN1 221745Z 05009KT 06/05 A3045 RMK A01 T00590049  RH  093%=      5-min Rain = 0
KEN1 221746Z 04007KT 06/05 A3045 RMK A01 T00590050  RH  094%=      5-min Rain = 0
KEN1 221747Z 04009KT 06/05 A3045 RMK A01 T00600051  RH  094%=      5-min Rain = 0
KEN1 221748Z 04009KT 06/05 A3045 RMK A01 T00600051  RH  094%=      5-min Rain = 0
KEN1 221749Z 03011KT 06/05 A3045 RMK A01 T00600051  RH  094%=      5-min Rain = 0
KEN1 221750Z 04010KT 06/05 A3045 RMK A01 T00590049  RH  093%=      5-min Rain = 0
KEN1 221751Z 04009KT 06/05 A3045 RMK A01 T00590049  RH  093%=      5-min Rain = 0
KEN1 221752Z 04009KT 06/05 A3045 RMK A01 T00590049  RH  093%=      5-min Rain = 0
KEN1 221753Z 05011KT 06/05 A3045 RMK A01 T00590049  RH  093%=      5-min Rain = 0
KEN1 221754Z 04009KT 06/05 A3045 RMK A01 T00590049  RH  093%=      5-min Rain = 0
KEN1 221755Z 05009KT 06/05 A3044 RMK A01 T00590049  RH  093%=      5-min Rain = 0
KEN1 221756Z 04008KT 06/05 A3044 RMK A01 T00600050  RH  093%=      5-min Rain = 0
KEN1 221757Z 04009KT 06/05 A3044 RMK A01 T00600050  RH  094%=      5-min Rain = 0
KEN1 221758Z 04011KT 06/05 A3044 RMK A01 T00600051  RH  094%=      5-min Rain = 0
KEN1 221759Z 04012KT 06/05 A3044 RMK A01 T00600050  RH  094%=      5-min Rain = 0
KEN1 221800Z 04011KT 06/05 A3044 RMK A01 T00590049  RH  093%=      5-min Rain = 0
KEN1 221801Z 04012KT 06/05 A3044 RMK A01 T00590049  RH  093%=      5-min Rain = 0
KEN1 221802Z 04011KT 06/05 A3044 RMK A01 T00590049  RH  093%=      5-min Rain = 0
KEN1 221803Z 04009KT 06/05 A3044 RMK A01 T00590049  RH  093%=      5-min Rain = 0
KEN1 221804Z 04008KT 06/05 A3044 RMK A01 T00590050  RH  094%=      5-min Rain = 0
KEN1 221805Z 04010KT 06/05 A3044 RMK A01 T00590050  RH  094%=      5-min Rain = 0
KEN1 221806Z 04010KT 06/05 A3044 RMK A01 T00590050  RH  094%=      5-min Rain = 0
KEN1 221807Z 04009KT 06/05 A3044 RMK A01 T00590049  RH  093%=      5-min Rain = 0
KEN1 221808Z 04011KT 06/05 A3044 RMK A01 T00590049  RH  093%=      5-min Rain = 0
KEN1 221809Z 04010KT 06/05 A3044 RMK A01 T00590049  RH  093%=      5-min Rain = 0
KEN1 221810Z 04009KT 06/05 A3044 RMK A01 T00590048  RH  093%=      5-min Rain = 0
KEN1 221811Z 04009KT 06/05 A3044 RMK A01 T00600049  RH  093%=      5-min Rain = 0
KEN1 221812Z 04010KT 06/05 A3044 RMK A01 T00600049  RH  093%=      5-min Rain = 0
KEN1 221813Z 04009KT 06/05 A3044 RMK A01 T00600049  RH  093%=      5-min Rain = 0
KEN1 221814Z 04009KT 06/05 A3043 RMK A01 T00600049  RH  093%=      5-min Rain = 0
KEN1 221815Z 04011KT 06/05 A3043 RMK A01 T00600049  RH  093%=      5-min Rain = 0
KEN1 221816Z 04008KT 06/05 A3043 RMK A01 T00600049  RH  092%=      5-min Rain = 0
KEN1 221817Z 04009KT 06/05 A3043 RMK A01 T00600050  RH  093%=      5-min Rain = 0
KEN1 221818Z 05010KT 06/05 A3043 RMK A01 T00600050  RH  093%=      5-min Rain = 0
KEN1 221819Z 05011KT 06/05 A3043 RMK A01 T00600050  RH  093%=      5-min Rain = 0
KEN1 221820Z 04010KT 06/05 A3043 RMK A01 T00610049  RH  092%=      5-min Rain = 0
KEN1 221821Z 04010KT 06/05 A3043 RMK A01 T00610049  RH  092%=      5-min Rain = 0
KEN1 221822Z 05009KT 06/05 A3043 RMK A01 T00610049  RH  092%=      5-min Rain = 0
KEN1 221823Z 05008KT 06/05 A3043 RMK A01 T00620050  RH  093%=      5-min Rain = 0
KEN1 221824Z 04008KT 06/05 A3043 RMK A01 T00610050  RH  093%=      5-min Rain = 0
KEN1 221825Z 04010KT 06/05 A3043 RMK A01 T00620050  RH  092%=      5-min Rain = 0
KEN1 221826Z 04008KT 06/05 A3043 RMK A01 T00610049  RH  092%=      5-min Rain = 0
KEN1 221827Z 04010KT 06/05 A3043 RMK A01 T00620050  RH  092%=      5-min Rain = 0
KEN1 221828Z 04009KT 06/05 A3043 RMK A01 T00620049  RH  092%=      5-min Rain = 0
KEN1 221829Z 04010KT 06/05 A3043 RMK A01 T00620050  RH  092%=      5-min Rain = 0
KEN1 221830Z 04010KT 06/05 A3043 RMK A01 T00620049  RH  092%=      5-min Rain = 0
KEN1 221831Z 04011KT 06/05 A3043 RMK A01 T00620049  RH  091%=      5-min Rain = 0
KEN1 221832Z 04009KT 06/05 A3043 RMK A01 T00620049  RH  091%=      5-min Rain = 0
KEN1 221833Z 04009KT 06/05 A3043 RMK A01 T00620049  RH  091%=      5-min Rain = 0
KEN1 221834Z 04009KT 06/05 A3043 RMK A01 T00620049  RH  091%=      5-min Rain = 0
KEN1 221835Z 04009KT 06/05 A3043 RMK A01 T00620050  RH  092%=      5-min Rain = 0
KEN1 221836Z 04010KT 06/05 A3043 RMK A01 T00620049  RH  091%=      5-min Rain = 0
KEN1 221837Z 05009KT 06/05 A3043 RMK A01 T00630050  RH  091%=      5-min Rain = 0
KEN1 221838Z 04011KT 06/05 A3043 RMK A01 T00620049  RH  091%=      5-min Rain = 0
KEN1 221839Z 04012KT 06/05 A3042 RMK A01 T00620048  RH  091%=      5-min Rain = 0
KEN1 221840Z 04011KT 06/05 A3042 RMK A01 T00630048  RH  091%=      5-min Rain = 0
KEN1 221841Z 05011KT 06/05 A3042 RMK A01 T00630048  RH  090%=      5-min Rain = 0
KEN1 221842Z 05010KT 06/05 A3042 RMK A01 T00630048  RH  090%=      5-min Rain = 0
KEN1 221843Z 05010KT 06/05 A3042 RMK A01 T00630049  RH  091%=      5-min Rain = 0
KEN1 221844Z 05012KT 06/05 A3042 RMK A01 T00630048  RH  090%=      5-min Rain = 0
KEN1 221845Z 06009KT 06/05 A3042 RMK A01 T00630048  RH  090%=      5-min Rain = 0
KEN1 221846Z 05009KT 06/05 A3042 RMK A01 T00640049  RH  091%=      5-min Rain = 0
KEN1 221847Z 06009KT 06/05 A3042 RMK A01 T00640051  RH  091%=      5-min Rain = 0
KEN1 221848Z 06009KT 07/05 A3042 RMK A01 T00650051  RH  091%=      5-min Rain = 0
KEN1 221849Z 06010KT 07/05 A3042 RMK A01 T00650051  RH  091%=      5-min Rain = 0
KEN1 221850Z 06011KT 07/05 A3042 RMK A01 T00650050  RH  090%=      5-min Rain = 0
KEN1 221851Z 06012KT 06/05 A3042 RMK A01 T00640049  RH  090%=      5-min Rain = 0
KEN1 221852Z 05011KT 06/05 A3042 RMK A01 T00640049  RH  090%=      5-min Rain = 0
KEN1 221853Z 06011KT 06/05 A3042 RMK A01 T00640049  RH  090%=      5-min Rain = 0
KEN1 221854Z 06011KT 06/05 A3042 RMK A01 T00640049  RH  090%=      5-min Rain = 0
KEN1 221855Z 06011KT 07/05 A3042 RMK A01 T00650049  RH  090%=      5-min Rain = 0
KEN1 221856Z 05012KT 07/05 A3042 RMK A01 T00650049  RH  090%=      5-min Rain = 0
KEN1 221857Z 06010KT 07/05 A3042 RMK A01 T00650049  RH  090%=      5-min Rain = 0
KEN1 221858Z 06012KT 07/05 A3042 RMK A01 T00650049  RH  090%=      5-min Rain = 0
KEN1 221859Z 06009KT 07/05 A3042 RMK A01 T00650049  RH  089%=      5-min Rain = 0
KEN1 221900Z 06010KT 07/05 A3042 RMK A01 T00650050  RH  090%=      5-min Rain = 0
KEN1 221901Z 06010KT 07/05 A3042 RMK A01 T00650049  RH  090%=      5-min Rain = 0
KEN1 221902Z 06009KT 07/05 A3042 RMK A01 T00650049  RH  089%=      5-min Rain = 0
KEN1 221903Z 06008KT 07/05 A3042 RMK A01 T00650049  RH  089%=      5-min Rain = 0
KEN1 221904Z 06008KT 07/05 A3042 RMK A01 T00650049  RH  089%=      5-min Rain = 0
KEN1 221905Z 06009KT 07/05 A3042 RMK A01 T00660050  RH  090%=      5-min Rain = 0
KEN1 221906Z 07010KT 07/05 A3041 RMK A01 T00650049  RH  089%=      5-min Rain = 0
KEN1 221907Z 06010KT 07/05 A3041 RMK A01 T00660050  RH  089%=      5-min Rain = 0
KEN1 221908Z 06010KT 07/05 A3041 RMK A01 T00660050  RH  089%=      5-min Rain = 0
KEN1 221909Z 07009KT 07/05 A3041 RMK A01 T00660049  RH  089%=      5-min Rain = 0
KEN1 221910Z 06009KT 07/05 A3041 RMK A01 T00670050  RH  089%=      5-min Rain = 0
KEN1 221911Z 06009KT 07/05 A3041 RMK A01 T00670050  RH  089%=      5-min Rain = 0
KEN1 221912Z 07010KT 07/05 A3041 RMK A01 T00670050  RH  089%=      5-min Rain = 0
KEN1 221913Z 06011KT 07/05 A3041 RMK A01 T00670049  RH  088%=      5-min Rain = 0
KEN1 221914Z 07010KT 07/05 A3041 RMK A01 T00670048  RH  088%=      5-min Rain = 0
KEN1 221915Z 07009KT 07/05 A3041 RMK A01 T00660048  RH  088%=      5-min Rain = 0
KEN1 221916Z 07008KT 07/05 A3041 RMK A01 T00670050  RH  089%=      5-min Rain = 0
KEN1 221917Z 06011KT 07/05 A3041 RMK A01 T00670051  RH  090%=      5-min Rain = 0
KEN1 221918Z 07010KT 07/05 A3041 RMK A01 T00660049  RH  089%=      5-min Rain = 0
KEN1 221919Z 06010KT 07/05 A3041 RMK A01 T00660048  RH  088%=      5-min Rain = 0
KEN1 221920Z 06009KT 07/05 A3041 RMK A01 T00660048  RH  088%=      5-min Rain = 0
KEN1 221921Z 07008KT 07/05 A3041 RMK A01 T00660049  RH  089%=      5-min Rain = 0
KEN1 221922Z 06009KT 07/05 A3041 RMK A01 T00660050  RH  089%=      5-min Rain = 0
KEN1 221923Z 05008KT 07/05 A3041 RMK A01 T00660049  RH  089%=      5-min Rain = 0
KEN1 221924Z 07009KT 07/05 A3041 RMK A01 T00660049  RH  089%=      5-min Rain = 0
KEN1 221925Z 06009KT 07/05 A3041 RMK A01 T00660050  RH  089%=      5-min Rain = 0
KEN1 221926Z 07009KT 07/05 A3041 RMK A01 T00660049  RH  089%=      5-min Rain = 0
KEN1 221927Z 06009KT 07/05 A3041 RMK A01 T00670049  RH  088%=      5-min Rain = 0
KEN1 221928Z 07010KT 07/05 A3041 RMK A01 T00670049  RH  088%=      5-min Rain = 0
KEN1 221929Z 06009KT 07/05 A3041 RMK A01 T00660048  RH  088%=      5-min Rain = 0
KEN1 221930Z 07009KT 07/05 A3041 RMK A01 T00670050  RH  089%=      5-min Rain = 0
KEN1 221931Z 06010KT 07/05 A3041 RMK A01 T00670050  RH  089%=      5-min Rain = 0
KEN1 221932Z 06008KT 07/05 A3041 RMK A01 T00680049  RH  088%=      5-min Rain = 0
KEN1 221933Z 06007KT 07/05 A3041 RMK A01 T00670050  RH  089%=      5-min Rain = 0
KEN1 221934Z 06008KT 07/05 A3041 RMK A01 T00680051  RH  089%=      5-min Rain = 0
KEN1 221935Z 07007KT 07/05 A3041 RMK A01 T00680050  RH  089%=      5-min Rain = 0
KEN1 221936Z 07009KT 07/05 A3041 RMK A01 T00680051  RH  089%=      5-min Rain = 0
KEN1 221937Z 06009KT 07/05 A3041 RMK A01 T00690051  RH  088%=      5-min Rain = 0
KEN1 221938Z 06008KT 07/05 A3041 RMK A01 T00680050  RH  088%=      5-min Rain = 0
KEN1 221939Z 07009KT 07/05 A3041 RMK A01 T00690052  RH  089%=      5-min Rain = 0
KEN1 221940Z 06008KT 07/05 A304 RMK A01 T00690050  RH  088%=      5-min Rain = 0
KEN1 221941Z 05008KT 07/05 A304 RMK A01 T00690051  RH  088%=      5-min Rain = 0
KEN1 221942Z 05010KT 07/05 A304 RMK A01 T00690051  RH  088%=      5-min Rain = 0
KEN1 221943Z 05010KT 07/05 A304 RMK A01 T00690050  RH  088%=      5-min Rain = 0
KEN1 221944Z 06009KT 07/05 A304 RMK A01 T00690050  RH  088%=      5-min Rain = 0
KEN1 221945Z 05009KT 07/05 A304 RMK A01 T00690049  RH  087%=      5-min Rain = 0
KEN1 221946Z 06010KT 07/05 A304 RMK A01 T00690050  RH  087%=      5-min Rain = 0
KEN1 221947Z 06009KT 07/05 A304 RMK A01 T00690049  RH  087%=      5-min Rain = 0
KEN1 221948Z 06013KT 07/05 A304 RMK A01 T00690050  RH  088%=      5-min Rain = 0
KEN1 221949Z 06012KT 07/05 A304 RMK A01 T00690048  RH  087%=      5-min Rain = 0
KEN1 221950Z 05011KT 07/05 A304 RMK A01 T00690048  RH  087%=      5-min Rain = 0
KEN1 221951Z 05011KT 07/05 A304 RMK A01 T00690048  RH  087%=      5-min Rain = 0
KEN1 221952Z 05010KT 07/05 A304 RMK A01 T00690048  RH  086%=      5-min Rain = 0
KEN1 221953Z 05009KT 07/05 A304 RMK A01 T00690050  RH  087%=      5-min Rain = 0
KEN1 221954Z 05012KT 07/05 A304 RMK A01 T00700051  RH  087%=      5-min Rain = 0
KEN1 221955Z 05010KT 07/05 A304 RMK A01 T00700050  RH  087%=      5-min Rain = 0
KEN1 221956Z 05010KT 07/05 A304 RMK A01 T00700049  RH  086%=      5-min Rain = 0
KEN1 221957Z 05008KT 07/05 A304 RMK A01 T00700049  RH  087%=      5-min Rain = 0
KEN1 221958Z 05011KT 07/05 A304 RMK A01 T00710051  RH  087%=      5-min Rain = 0
KEN1 221959Z 05011KT 07/05 A304 RMK A01 T00710048  RH  086%=      5-min Rain = 0
KEN1 222000Z 05010KT 07/05 A304 RMK A01 T00700048  RH  086%=      5-min Rain = 0
KEN1 222001Z 05009KT 07/05 A304 RMK A01 T00710049  RH  086%=      5-min Rain = 0
KEN1 222002Z 06011KT 07/05 A304 RMK A01 T00710049  RH  086%=      5-min Rain = 0
KEN1 222003Z 05010KT 07/05 A304 RMK A01 T00710049  RH  086%=      5-min Rain = 0
KEN1 222004Z 05010KT 07/05 A304 RMK A01 T00710049  RH  086%=      5-min Rain = 0
KEN1 222005Z 06009KT 07/05 A304 RMK A01 T00710049  RH  086%=      5-min Rain = 0
KEN1 222006Z 06009KT 07/05 A304 RMK A01 T00710051  RH  087%=      5-min Rain = 0
KEN1 222007Z 06008KT 07/05 A3039 RMK A01 T00720052  RH  087%=      5-min Rain = 0
KEN1 222008Z 06009KT 07/05 A3039 RMK A01 T00720053  RH  087%=      5-min Rain = 0
KEN1 222009Z 05010KT 07/05 A3039 RMK A01 T00730051  RH  086%=      5-min Rain = 0
KEN1 222010Z 06011KT 07/05 A3039 RMK A01 T00730050  RH  085%=      5-min Rain = 0
KEN1 222011Z 05012KT 07/05 A3039 RMK A01 T00720047  RH  084%=      5-min Rain = 0
KEN1 222012Z 06010KT 07/05 A3039 RMK A01 T00720046  RH  084%=      5-min Rain = 0
KEN1 222013Z 06010KT 07/05 A3039 RMK A01 T00720048  RH  085%=      5-min Rain = 0
KEN1 222014Z 06011KT 07/05 A3039 RMK A01 T00720048  RH  085%=      5-min Rain = 0
KEN1 222015Z 06010KT 07/05 A3039 RMK A01 T00720047  RH  084%=      5-min Rain = 0
KEN1 222016Z 05011KT 07/05 A3039 RMK A01 T00720047  RH  084%=      5-min Rain = 0
KEN1 222017Z 05010KT 07/05 A3039 RMK A01 T00720046  RH  084%=      5-min Rain = 0
KEN1 222018Z 06009KT 07/05 A3039 RMK A01 T00720046  RH  084%=      5-min Rain = 0
KEN1 222019Z 06009KT 07/05 A3039 RMK A01 T00720047  RH  084%=      5-min Rain = 0
KEN1 222020Z 05007KT 07/05 A3039 RMK A01 T00730047  RH  084%=      5-min Rain = 0
KEN1 222021Z 06007KT 07/05 A3039 RMK A01 T00730048  RH  084%=      5-min Rain = 0
KEN1 222022Z 06008KT 07/05 A3039 RMK A01 T00730049  RH  085%=      5-min Rain = 0
KEN1 222023Z 07011KT 07/05 A3039 RMK A01 T00730047  RH  084%=      5-min Rain = 0
KEN1 222024Z 06011KT 07/05 A3039 RMK A01 T00730045  RH  083%=      5-min Rain = 0
KEN1 222025Z 06010KT 07/04 A3039 RMK A01 T00720044  RH  082%=      5-min Rain = 0
KEN1 222026Z 06009KT 07/04 A3039 RMK A01 T00720044  RH  082%=      5-min Rain = 0
KEN1 222027Z 07009KT 07/05 A3039 RMK A01 T00720046  RH  083%=      5-min Rain = 0
KEN1 222028Z 07010KT 07/05 A3039 RMK A01 T00720045  RH  083%=      5-min Rain = 0
KEN1 222029Z 07008KT 07/04 A3039 RMK A01 T00720044  RH  082%=      5-min Rain = 0
KEN1 222030Z 06010KT 07/04 A3039 RMK A01 T00720044  RH  082%=      5-min Rain = 0
KEN1 222031Z 06010KT 07/04 A3039 RMK A01 T00720042  RH  081%=      5-min Rain = 0
KEN1 222032Z 06010KT 07/04 A3039 RMK A01 T00720043  RH  081%=      5-min Rain = 0
KEN1 222033Z 06009KT 07/04 A3039 RMK A01 T00720043  RH  082%=      5-min Rain = 0
KEN1 222034Z 06010KT 07/04 A3039 RMK A01 T00720043  RH  082%=      5-min Rain = 0
KEN1 222035Z 06009KT 07/04 A3039 RMK A01 T00720043  RH  082%=      5-min Rain = 0
KEN1 222036Z 06010KT 07/04 A3039 RMK A01 T00720043  RH  082%=      5-min Rain = 0
KEN1 222037Z 06008KT 07/04 A3038 RMK A01 T00720043  RH  082%=      5-min Rain = 0
KEN1 222038Z 06008KT 07/04 A3038 RMK A01 T00730043  RH  082%=      5-min Rain = 0
KEN1 222039Z 06008KT 07/04 A3038 RMK A01 T00730044  RH  082%=      5-min Rain = 0
KEN1 222040Z 06009KT 07/05 A3038 RMK A01 T00740046  RH  082%=      5-min Rain = 0
KEN1 222041Z 06009KT 07/05 A3038 RMK A01 T00740045  RH  082%=      5-min Rain = 0
KEN1 222042Z 06008KT 07/05 A3038 RMK A01 T00740045  RH  082%=      5-min Rain = 0
KEN1 222043Z 07008KT 07/04 A3038 RMK A01 T00740044  RH  081%=      5-min Rain = 0
KEN1 222044Z 07011KT 07/04 A3038 RMK A01 T00740043  RH  081%=      5-min Rain = 0
KEN1 222045Z 07009KT 07/04 A3038 RMK A01 T00740042  RH  080%=      5-min Rain = 0
KEN1 222046Z 06009KT 07/04 A3038 RMK A01 T00730043  RH  081%=      5-min Rain = 0
KEN1 222047Z 06009KT 07/04 A3038 RMK A01 T00730042  RH  081%=      5-min Rain = 0
KEN1 222048Z 06009KT 07/04 A3038 RMK A01 T00730043  RH  081%=      5-min Rain = 0
KEN1 222049Z 07009KT 07/04 A3038 RMK A01 T00730042  RH  080%=      5-min Rain = 0
KEN1 222050Z 07009KT 07/04 A3038 RMK A01 T00730042  RH  080%=      5-min Rain = 0
KEN1 222051Z 07008KT 07/04 A3038 RMK A01 T00730042  RH  080%=      5-min Rain = 0
KEN1 222052Z 06007KT 07/04 A3038 RMK A01 T00740044  RH  081%=      5-min Rain = 0
KEN1 222053Z 06008KT 07/04 A3038 RMK A01 T00730044  RH  082%=      5-min Rain = 0
KEN1 222054Z 06009KT 07/04 A3038 RMK A01 T00740044  RH  081%=      5-min Rain = 0
KEN1 222055Z 06009KT 07/04 A3038 RMK A01 T00740042  RH  080%=      5-min Rain = 0
KEN1 222056Z 07009KT 07/04 A3038 RMK A01 T00740043  RH  081%=      5-min Rain = 0
KEN1 222057Z 06010KT 07/04 A3038 RMK A01 T00740044  RH  081%=      5-min Rain = 0
KEN1 222058Z 06009KT 07/04 A3038 RMK A01 T00740044  RH  081%=      5-min Rain = 0
KEN1 222059Z 06009KT 08/04 A3038 RMK A01 T00750043  RH  081%=      5-min Rain = 0
KEN1 222100Z 06010KT 07/04 A3037 RMK A01 T00740043  RH  080%=      5-min Rain = 0
KEN1 222101Z 06009KT 07/04 A3037 RMK A01 T00740042  RH  080%=      5-min Rain = 0
KEN1 222102Z 06009KT 07/04 A3037 RMK A01 T00740042  RH  080%=      5-min Rain = 0
KEN1 222103Z 06009KT 07/04 A3037 RMK A01 T00740043  RH  080%=      5-min Rain = 0
KEN1 222104Z 06009KT 07/04 A3037 RMK A01 T00740042  RH  080%=      5-min Rain = 0
KEN1 222105Z 06009KT 07/04 A3037 RMK A01 T00740041  RH  080%=      5-min Rain = 0
KEN1 222106Z 06008KT 07/04 A3037 RMK A01 T00740041  RH  080%=      5-min Rain = 0
KEN1 222107Z 07008KT 07/04 A3037 RMK A01 T00740042  RH  080%=      5-min Rain = 0
KEN1 222108Z 07008KT 08/04 A3037 RMK A01 T00750043  RH  081%=      5-min Rain = 0
KEN1 222109Z 08008KT 07/04 A3037 RMK A01 T00740044  RH  081%=      5-min Rain = 0
KEN1 222110Z 07008KT 07/04 A3037 RMK A01 T00740042  RH  080%=      5-min Rain = 0
KEN1 222111Z 07007KT 07/04 A3037 RMK A01 T00740043  RH  081%=      5-min Rain = 0
KEN1 222112Z 07007KT 07/04 A3037 RMK A01 T00740044  RH  081%=      5-min Rain = 0
KEN1 222113Z 07006KT 07/04 A3037 RMK A01 T00740043  RH  081%=      5-min Rain = 0
KEN1 222114Z 07009KT 07/04 A3037 RMK A01 T00740044  RH  081%=      5-min Rain = 0
KEN1 222115Z 07011KT 07/04 A3037 RMK A01 T00740042  RH  080%=      5-min Rain = 0
KEN1 222116Z 08009KT 07/04 A3037 RMK A01 T00740042  RH  080%=      5-min Rain = 0
KEN1 222117Z 08009KT 07/04 A3037 RMK A01 T00740042  RH  080%=      5-min Rain = 0
KEN1 222118Z 07008KT 07/04 A3037 RMK A01 T00740042  RH  080%=      5-min Rain = 0
KEN1 222119Z 07008KT 07/04 A3037 RMK A01 T00740043  RH  080%=      5-min Rain = 0
KEN1 222120Z 07009KT 08/04 A3037 RMK A01 T00750042  RH  080%=      5-min Rain = 0
KEN1 222121Z 07008KT 08/04 A3037 RMK A01 T00750042  RH  080%=      5-min Rain = 0
KEN1 222122Z 08008KT 08/04 A3037 RMK A01 T00750042  RH  080%=      5-min Rain = 0
KEN1 222123Z 08007KT 08/04 A3037 RMK A01 T00750042  RH  080%=      5-min Rain = 0
KEN1 222124Z 07006KT 08/04 A3037 RMK A01 T00750043  RH  080%=      5-min Rain = 0
KEN1 222125Z 07007KT 08/04 A3037 RMK A01 T00750043  RH  080%=      5-min Rain = 0
KEN1 222126Z 06007KT 08/04 A3037 RMK A01 T00750041  RH  079%=      5-min Rain = 0
KEN1 222127Z 07007KT 08/04 A3037 RMK A01 T00750041  RH  079%=      5-min Rain = 0
KEN1 222128Z 07007KT 07/04 A3037 RMK A01 T00740042  RH  080%=      5-min Rain = 0
KEN1 222129Z 07007KT 07/04 A3037 RMK A01 T00740043  RH  081%=      5-min Rain = 0
KEN1 222130Z 08007KT 07/04 A3037 RMK A01 T00740042  RH  080%=      5-min Rain = 0
KEN1 222131Z 08008KT 07/04 A3037 RMK A01 T00740042  RH  080%=      5-min Rain = 0
KEN1 222132Z 07006KT 07/04 A3037 RMK A01 T00740044  RH  081%=      5-min Rain = 0
KEN1 222133Z 07007KT 07/05 A3037 RMK A01 T00740045  RH  082%=      5-min Rain = 0
KEN1 222134Z 07008KT 07/04 A3037 RMK A01 T00740044  RH  081%=      5-min Rain = 0
KEN1 222135Z 06008KT 07/04 A3037 RMK A01 T00740043  RH  081%=      5-min Rain = 0
KEN1 222136Z 06008KT 07/04 A3037 RMK A01 T00740043  RH  081%=      5-min Rain = 0
KEN1 222137Z 06007KT 07/04 A3037 RMK A01 T00740042  RH  080%=      5-min Rain = 0
KEN1 222138Z 06007KT 08/04 A3037 RMK A01 T00750043  RH  080%=      5-min Rain = 0
KEN1 222139Z 06008KT 07/04 A3037 RMK A01 T00740043  RH  080%=      5-min Rain = 0
KEN1 222140Z 06008KT 07/04 A3036 RMK A01 T00740043  RH  080%=      5-min Rain = 0
KEN1 222141Z 06008KT 07/04 A3036 RMK A01 T00740042  RH  080%=      5-min Rain = 0
KEN1 222142Z 06007KT 07/04 A3036 RMK A01 T00740043  RH  081%=      5-min Rain = 0
KEN1 222143Z 05007KT 07/04 A3036 RMK A01 T00740043  RH  081%=      5-min Rain = 0
KEN1 222144Z 06008KT 07/04 A3036 RMK A01 T00740044  RH  081%=      5-min Rain = 0
KEN1 222145Z 07006KT 07/04 A3036 RMK A01 T00740044  RH  081%=      5-min Rain = 0
KEN1 222146Z 07007KT 07/04 A3036 RMK A01 T00740044  RH  081%=      5-min Rain = 0
KEN1 222147Z 06007KT 07/04 A3036 RMK A01 T00740044  RH  081%=      5-min Rain = 0
KEN1 222148Z 07006KT 07/04 A3036 RMK A01 T00740044  RH  081%=      5-min Rain = 0
KEN1 222149Z 07007KT 07/04 A3036 RMK A01 T00740044  RH  081%=      5-min Rain = 0
KEN1 222150Z 07007KT 07/04 A3036 RMK A01 T00740043  RH  081%=      5-min Rain = 0
KEN1 222151Z 06007KT 07/04 A3036 RMK A01 T00740044  RH  081%=      5-min Rain = 0
KEN1 222152Z 06008KT 07/04 A3036 RMK A01 T00740043  RH  081%=      5-min Rain = 0
KEN1 222153Z 07008KT 07/04 A3036 RMK A01 T00740043  RH  080%=      5-min Rain = 0
KEN1 222154Z 06008KT 07/04 A3036 RMK A01 T00740043  RH  081%=      5-min Rain = 0
KEN1 222155Z 06008KT 07/04 A3036 RMK A01 T00740043  RH  080%=      5-min Rain = 0
KEN1 222156Z 06006KT 07/04 A3036 RMK A01 T00740042  RH  080%=      5-min Rain = 0
KEN1 222157Z 06007KT 07/04 A3036 RMK A01 T00740043  RH  081%=      5-min Rain = 0
KEN1 222158Z 07007KT 08/04 A3036 RMK A01 T00750044  RH  081%=      5-min Rain = 0
KEN1 222159Z 07007KT 07/04 A3036 RMK A01 T00740043  RH  081%=      5-min Rain = 0
KEN1 222200Z 07007KT 08/04 A3036 RMK A01 T00750044  RH  081%=      5-min Rain = 0
KEN1 222201Z 07007KT 08/04 A3036 RMK A01 T00750043  RH  080%=      5-min Rain = 0
KEN1 222202Z 07009KT 08/04 A3036 RMK A01 T00750043  RH  080%=      5-min Rain = 0
KEN1 222203Z 07009KT 08/04 A3036 RMK A01 T00750042  RH  080%=      5-min Rain = 0
KEN1 222204Z 07007KT 08/04 A3036 RMK A01 T00750042  RH  080%=      5-min Rain = 0
KEN1 222205Z 07009KT 08/04 A3036 RMK A01 T00750042  RH  080%=      5-min Rain = 0
KEN1 222206Z 07008KT 08/04 A3036 RMK A01 T00750041  RH  079%=      5-min Rain = 0
KEN1 222207Z 08007KT 08/04 A3036 RMK A01 T00750041  RH  079%=      5-min Rain = 0
KEN1 222208Z 08007KT 08/04 A3036 RMK A01 T00750042  RH  080%=      5-min Rain = 0
KEN1 222209Z 08008KT 08/04 A3036 RMK A01 T00750042  RH  080%=      5-min Rain = 0
KEN1 222210Z 09007KT 08/04 A3036 RMK A01 T00750042  RH  080%=      5-min Rain = 0
KEN1 222211Z 09010KT 08/04 A3036 RMK A01 T00750041  RH  079%=      5-min Rain = 0
KEN1 222212Z 09010KT 08/04 A3036 RMK A01 T00760039  RH  078%=      5-min Rain = 0
KEN1 222213Z 09008KT 08/04 A3036 RMK A01 T00750040  RH  078%=      5-min Rain = 0
KEN1 222214Z 08007KT 08/04 A3036 RMK A01 T00750041  RH  079%=      5-min Rain = 0
KEN1 222215Z 08007KT 08/04 A3036 RMK A01 T00750042  RH  079%=      5-min Rain = 0
KEN1 222216Z 07008KT 08/04 A3036 RMK A01 T00750041  RH  079%=      5-min Rain = 0
KEN1 222217Z 07009KT 08/04 A3036 RMK A01 T00750041  RH  079%=      5-min Rain = 0
KEN1 222218Z 08009KT 08/04 A3036 RMK A01 T00750040  RH  079%=      5-min Rain = 0
KEN1 222219Z 08009KT 08/04 A3036 RMK A01 T00750040  RH  078%=      5-min Rain = 0
KEN1 222220Z 07008KT 08/04 A3036 RMK A01 T00750039  RH  078%=      5-min Rain = 0
KEN1 222221Z 08008KT 08/04 A3036 RMK A01 T00760040  RH  078%=      5-min Rain = 0
KEN1 222222Z 08008KT 08/04 A3036 RMK A01 T00750040  RH  078%=      5-min Rain = 0
KEN1 222223Z 08008KT 08/04 A3036 RMK A01 T00750040  RH  078%=      5-min Rain = 0
KEN1 222224Z 08008KT 08/04 A3036 RMK A01 T00750038  RH  077%=      5-min Rain = 0
KEN1 222225Z 09006KT 08/04 A3036 RMK A01 T00750039  RH  078%=      5-min Rain = 0
KEN1 222226Z 09006KT 08/04 A3036 RMK A01 T00750040  RH  079%=      5-min Rain = 0
KEN1 222227Z 10007KT 08/04 A3036 RMK A01 T00750041  RH  079%=      5-min Rain = 0
KEN1 222228Z 09007KT 08/04 A3036 RMK A01 T00750040  RH  078%=      5-min Rain = 0
KEN1 222229Z 10007KT 08/04 A3036 RMK A01 T00750037  RH  077%=      5-min Rain = 0
KEN1 222230Z 10007KT 08/04 A3036 RMK A01 T00750036  RH  076%=      5-min Rain = 0
KEN1 222231Z 10007KT 08/04 A3036 RMK A01 T00750036  RH  076%=      5-min Rain = 0
KEN1 222232Z 10008KT 08/04 A3036 RMK A01 T00750036  RH  076%=      5-min Rain = 0
KEN1 222233Z 10008KT 08/04 A3037 RMK A01 T00760036  RH  076%=      5-min Rain = 0
KEN1 222234Z 10007KT 08/04 A3037 RMK A01 T00760036  RH  076%=      5-min Rain = 0
KEN1 222235Z 10007KT 08/04 A3037 RMK A01 T00760037  RH  076%=      5-min Rain = 0
KEN1 222236Z 10006KT 08/04 A3037 RMK A01 T00760038  RH  077%=      5-min Rain = 0
KEN1 222237Z 10007KT 08/04 A3037 RMK A01 T00760039  RH  077%=      5-min Rain = 0
KEN1 222238Z 10007KT 08/04 A3037 RMK A01 T00760038  RH  077%=      5-min Rain = 0
KEN1 222239Z 10007KT 08/04 A3037 RMK A01 T00760037  RH  077%=      5-min Rain = 0
KEN1 222240Z 10007KT 08/04 A3037 RMK A01 T00760037  RH  076%=      5-min Rain = 0
KEN1 222241Z 11006KT 08/04 A3037 RMK A01 T00760037  RH  076%=      5-min Rain = 0
KEN1 222242Z 10006KT 08/04 A3037 RMK A01 T00760038  RH  077%=      5-min Rain = 0
KEN1 222243Z 10006KT 08/04 A3037 RMK A01 T00760038  RH  077%=      5-min Rain = 0
KEN1 222244Z 10007KT 08/04 A3037 RMK A01 T00760037  RH  077%=      5-min Rain = 0
KEN1 222245Z 10007KT 08/04 A3037 RMK A01 T00760036  RH  076%=      5-min Rain = 0
KEN1 222246Z 10008KT 08/04 A3037 RMK A01 T00760036  RH  076%=      5-min Rain = 0
KEN1 222247Z 10007KT 08/04 A3037 RMK A01 T00750035  RH  076%=      5-min Rain = 0
KEN1 222248Z 10007KT 08/04 A3037 RMK A01 T00760035  RH  075%=      5-min Rain = 0
KEN1 222249Z 10007KT 08/04 A3037 RMK A01 T00750035  RH  075%=      5-min Rain = 0
KEN1 222250Z 11009KT 08/04 A3037 RMK A01 T00760035  RH  075%=      5-min Rain = 0
KEN1 222251Z 11007KT 08/04 A3037 RMK A01 T00760035  RH  075%=      5-min Rain = 0
KEN1 222252Z 10007KT 08/04 A3037 RMK A01 T00760035  RH  076%=      5-min Rain = 0
KEN1 222253Z 10008KT 08/04 A3037 RMK A01 T00760036  RH  076%=      5-min Rain = 0
KEN1 222254Z 10007KT 08/04 A3037 RMK A01 T00760036  RH  076%=      5-min Rain = 0
KEN1 222255Z 09009KT 08/04 A3037 RMK A01 T00760036  RH  076%=      5-min Rain = 0
KEN1 222256Z 10007KT 08/04 A3037 RMK A01 T00760035  RH  076%=      5-min Rain = 0
KEN1 222257Z 10007KT 08/04 A3037 RMK A01 T00760036  RH  076%=      5-min Rain = 0
KEN1 222258Z 10008KT 08/04 A3037 RMK A01 T00760036  RH  076%=      5-min Rain = 0
KEN1 222259Z 10006KT 08/04 A3037 RMK A01 T00760036  RH  076%=      5-min Rain = 0
KEN1 222300Z 10007KT 08/04 A3037 RMK A01 T00760036  RH  076%=      5-min Rain = 0
KEN1 222301Z 09007KT 08/04 A3037 RMK A01 T00760036  RH  076%=      5-min Rain = 0
KEN1 222302Z 09006KT 08/04 A3037 RMK A01 T00760036  RH  076%=      5-min Rain = 0
KEN1 222303Z 09007KT 08/04 A3037 RMK A01 T00750035  RH  076%=      5-min Rain = 0
KEN1 222304Z 10007KT 08/04 A3037 RMK A01 T00750036  RH  076%=      5-min Rain = 0
KEN1 222305Z 10008KT 08/04 A3037 RMK A01 T00750035  RH  076%=      5-min Rain = 0
KEN1 222306Z 10007KT 08/03 A3037 RMK A01 T00750033  RH  075%=      5-min Rain = 0
KEN1 222307Z 10006KT 08/03 A3037 RMK A01 T00750033  RH  075%=      5-min Rain = 0
KEN1 222308Z 10006KT 08/03 A3037 RMK A01 T00750034  RH  075%=      5-min Rain = 0
KEN1 222309Z 10008KT 07/03 A3037 RMK A01 T00740033  RH  075%=      5-min Rain = 0
KEN1 222310Z 11007KT 07/03 A3037 RMK A01 T00740032  RH  075%=      5-min Rain = 0
KEN1 222311Z 10007KT 07/03 A3037 RMK A01 T00740031  RH  074%=      5-min Rain = 0
KEN1 222312Z 10007KT 07/03 A3037 RMK A01 T00740032  RH  075%=      5-min Rain = 0
KEN1 222313Z 10007KT 08/03 A3037 RMK A01 T00750033  RH  075%=      5-min Rain = 0
KEN1 222314Z 10008KT 07/03 A3037 RMK A01 T00740033  RH  075%=      5-min Rain = 0
KEN1 222315Z 10007KT 07/03 A3037 RMK A01 T00740032  RH  075%=      5-min Rain = 0
KEN1 222316Z 10008KT 07/03 A3037 RMK A01 T00740032  RH  075%=      5-min Rain = 0
KEN1 222317Z 10008KT 07/03 A3037 RMK A01 T00740033  RH  075%=      5-min Rain = 0
KEN1 222318Z 10009KT 07/03 A3036 RMK A01 T00740033  RH  075%=      5-min Rain = 0
KEN1 222319Z 10007KT 07/03 A3036 RMK A01 T00730033  RH  076%=      5-min Rain = 0
KEN1 222320Z 10007KT 07/03 A3036 RMK A01 T00730034  RH  076%=      5-min Rain = 0
KEN1 222321Z 10006KT 07/03 A3036 RMK A01 T00730034  RH  076%=      5-min Rain = 0
KEN1 222322Z 10005KT 07/04 A3036 RMK A01 T00730035  RH  076%=      5-min Rain = 0
KEN1 222323Z 10007KT 07/04 A3036 RMK A01 T00730035  RH  077%=      5-min Rain = 0
KEN1 222324Z 10008KT 07/03 A3036 RMK A01 T00730034  RH  076%=      5-min Rain = 0
KEN1 222325Z 09008KT 07/03 A3036 RMK A01 T00730033  RH  076%=      5-min Rain = 0
KEN1 222326Z 10008KT 07/03 A3036 RMK A01 T00730033  RH  076%=      5-min Rain = 0
KEN1 222327Z 10008KT 07/03 A3036 RMK A01 T00730032  RH  075%=      5-min Rain = 0
KEN1 222328Z 10006KT 07/03 A3036 RMK A01 T00730033  RH  076%=      5-min Rain = 0
KEN1 222329Z 10007KT 07/03 A3036 RMK A01 T00730034  RH  076%=      5-min Rain = 0
KEN1 222330Z 10007KT 07/03 A3036 RMK A01 T00730033  RH  076%=      5-min Rain = 0
KEN1 222331Z 11007KT 07/03 A3036 RMK A01 T00720033  RH  076%=      5-min Rain = 0
KEN1 222332Z 11007KT 07/03 A3037 RMK A01 T00730034  RH  077%=      5-min Rain = 0
KEN1 222333Z 11006KT 07/04 A3037 RMK A01 T00730035  RH  077%=      5-min Rain = 0
KEN1 222334Z 10007KT 07/03 A3037 RMK A01 T00720034  RH  077%=      5-min Rain = 0
KEN1 222335Z 10007KT 07/03 A3037 RMK A01 T00720034  RH  077%=      5-min Rain = 0
KEN1 222336Z 11007KT 07/03 A3036 RMK A01 T00730034  RH  077%=      5-min Rain = 0
KEN1 222337Z 11007KT 07/03 A3036 RMK A01 T00720034  RH  077%=      5-min Rain = 0
KEN1 222338Z 11008KT 07/04 A3036 RMK A01 T00730035  RH  077%=      5-min Rain = 0
KEN1 222339Z 11008KT 07/03 A3036 RMK A01 T00720034  RH  077%=      5-min Rain = 0
KEN1 222340Z 11008KT 07/03 A3036 RMK A01 T00720034  RH  077%=      5-min Rain = 0
KEN1 222341Z 11008KT 07/03 A3036 RMK A01 T00720034  RH  077%=      5-min Rain = 0
KEN1 222342Z 10009KT 07/04 A3036 RMK A01 T00720035  RH  077%=      5-min Rain = 0
KEN1 222343Z 10007KT 07/04 A3036 RMK A01 T00720035  RH  077%=      5-min Rain = 0
KEN1 222344Z 11007KT 07/04 A3036 RMK A01 T00710035  RH  078%=      5-min Rain = 0
KEN1 222345Z 11008KT 07/04 A3036 RMK A01 T00710035  RH  078%=      5-min Rain = 0
KEN1 222346Z 11007KT 07/04 A3036 RMK A01 T00710035  RH  078%=      5-min Rain = 0
KEN1 222347Z 10007KT 07/04 A3036 RMK A01 T00710036  RH  078%=      5-min Rain = 0
KEN1 222348Z 10008KT 07/04 A3036 RMK A01 T00710036  RH  078%=      5-min Rain = 0
KEN1 222349Z 10008KT 07/04 A3036 RMK A01 T00710035  RH  078%=      5-min Rain = 0
KEN1 222350Z 10008KT 07/04 A3036 RMK A01 T00710035  RH  078%=      5-min Rain = 0
KEN1 222351Z 10008KT 07/04 A3036 RMK A01 T00710035  RH  078%=      5-min Rain = 0
KEN1 222352Z 10008KT 07/04 A3036 RMK A01 T00710035  RH  078%=      5-min Rain = 0
KEN1 222353Z 10008KT 07/04 A3036 RMK A01 T00710036  RH  078%=      5-min Rain = 0
KEN1 222354Z 10007KT 07/04 A3035 RMK A01 T00710036  RH  079%=      5-min Rain = 0
KEN1 222355Z 10008KT 07/04 A3035 RMK A01 T00710036  RH  079%=      5-min Rain = 0
KEN1 222356Z 10008KT 07/04 A3035 RMK A01 T00700036  RH  079%=      5-min Rain = 0
KEN1 222357Z 10009KT 07/04 A3035 RMK A01 T00700036  RH  079%=      5-min Rain = 0
KEN1 222358Z 10008KT 07/04 A3035 RMK A01 T00700036  RH  079%=      5-min Rain = 0
KEN1 222359Z 10008KT 07/04 A3035 RMK A01 T00700036  RH  079%=      5-min Rain = 0
KEN1 230000Z 11007KT 07/04 A3035 RMK A01 T00700036  RH  079%=      5-min Rain = 0
KEN1 230001Z 10007KT 07/04 A3035 RMK A01 T00700036  RH  079%=      5-min Rain = 0
KEN1 230002Z 10006KT 07/04 A3035 RMK A01 T00700036  RH  079%=      5-min Rain = 0
KEN1 230003Z 11006KT 07/04 A3036 RMK A01 T00700036  RH  079%=      5-min Rain = 0
KEN1 230004Z 10005KT 07/04 A3036 RMK A01 T00700036  RH  079%=      5-min Rain = 0
KEN1 230005Z 10005KT 07/04 A3036 RMK A01 T00700036  RH  079%=      5-min Rain = 0
KEN1 230006Z 11004KT 07/04 A3035 RMK A01 T00700037  RH  079%=      5-min Rain = 0
KEN1 230007Z 10005KT 07/04 A3035 RMK A01 T00700037  RH  079%=      5-min Rain = 0
KEN1 230008Z 11006KT 07/04 A3035 RMK A01 T00700037  RH  079%=      5-min Rain = 0
KEN1 230009Z 10006KT 07/04 A3036 RMK A01 T00700037  RH  079%=      5-min Rain = 0
KEN1 230010Z 10005KT 07/04 A3036 RMK A01 T00700037  RH  079%=      5-min Rain = 0
KEN1 230011Z 10006KT 07/04 A3036 RMK A01 T00700037  RH  080%=      5-min Rain = 0
KEN1 230012Z 11006KT 07/04 A3036 RMK A01 T00700037  RH  079%=      5-min Rain = 0
KEN1 230013Z 10007KT 07/04 A3036 RMK A01 T00700036  RH  079%=      5-min Rain = 0
KEN1 230014Z 10006KT 07/04 A3036 RMK A01 T00700037  RH  079%=      5-min Rain = 0
KEN1 230015Z 09005KT 07/04 A3036 RMK A01 T00700036  RH  079%=      5-min Rain = 0
KEN1 230016Z 10006KT 07/04 A3036 RMK A01 T00700036  RH  079%=      5-min Rain = 0
KEN1 230017Z 10006KT 07/04 A3036 RMK A01 T00700036  RH  079%=      5-min Rain = 0
KEN1 230018Z 10006KT 07/04 A3036 RMK A01 T00700036  RH  079%=      5-min Rain = 0
KEN1 230019Z 10005KT 07/04 A3036 RMK A01 T00700036  RH  079%=      5-min Rain = 0
KEN1 230020Z 10005KT 07/04 A3036 RMK A01 T00700036  RH  079%=      5-min Rain = 0
KEN1 230021Z 10005KT 07/04 A3036 RMK A01 T00700036  RH  079%=      5-min Rain = 0
KEN1 230022Z 11005KT 07/04 A3036 RMK A01 T00700036  RH  079%=      5-min Rain = 0
KEN1 230023Z 11005KT 07/04 A3036 RMK A01 T00700037  RH  079%=      5-min Rain = 0
KEN1 230024Z 11004KT 07/04 A3036 RMK A01 T00700037  RH  079%=      5-min Rain = 0
KEN1 230025Z 12006KT 07/04 A3036 RMK A01 T00710038  RH  079%=      5-min Rain = 0
KEN1 230026Z 11005KT 07/04 A3036 RMK A01 T00700036  RH  079%=      5-min Rain = 0
KEN1 230027Z 12004KT 07/04 A3036 RMK A01 T00700037  RH  079%=      5-min Rain = 0
KEN1 230028Z 14004KT 07/04 A3036 RMK A01 T00700037  RH  079%=      5-min Rain = 0
KEN1 230029Z 13004KT 07/04 A3036 RMK A01 T00700038  RH  080%=      5-min Rain = 0
KEN1 230030Z 13005KT 07/04 A3036 RMK A01 T00700038  RH  080%=      5-min Rain = 0
KEN1 230031Z 14005KT 07/04 A3036 RMK A01 T00700038  RH  080%=      5-min Rain = 0
KEN1 230032Z 13006KT 07/04 A3036 RMK A01 T00700038  RH  080%=      5-min Rain = 0
KEN1 230033Z 13006KT 07/04 A3036 RMK A01 T00700038  RH  080%=      5-min Rain = 0
KEN1 230034Z 13006KT 07/04 A3036 RMK A01 T00700038  RH  080%=      5-min Rain = 0
KEN1 230035Z 13006KT 07/04 A3036 RMK A01 T00700038  RH  080%=      5-min Rain = 0
KEN1 230036Z 13005KT 07/04 A3036 RMK A01 T00700037  RH  080%=      5-min Rain = 0
KEN1 230037Z 13005KT 07/04 A3036 RMK A01 T00700037  RH  080%=      5-min Rain = 0
KEN1 230038Z 12005KT 07/04 A3036 RMK A01 T00700038  RH  080%=      5-min Rain = 0
KEN1 230039Z 12005KT 07/04 A3036 RMK A01 T00700039  RH  080%=      5-min Rain = 0
KEN1 230040Z 12005KT 07/04 A3036 RMK A01 T00700039  RH  080%=      5-min Rain = 0
KEN1 230041Z 12005KT 07/04 A3036 RMK A01 T00700038  RH  080%=      5-min Rain = 0
KEN1 230042Z 12005KT 07/04 A3036 RMK A01 T00700038  RH  080%=      5-min Rain = 0
KEN1 230043Z 11005KT 07/04 A3036 RMK A01 T00700038  RH  080%=      5-min Rain = 0
KEN1 230044Z 11005KT 07/04 A3036 RMK A01 T00700038  RH  080%=      5-min Rain = 0
KEN1 230045Z 10004KT 07/04 A3036 RMK A01 T00700038  RH  080%=      5-min Rain = 0
KEN1 230046Z 10005KT 07/04 A3036 RMK A01 T00700039  RH  081%=      5-min Rain = 0
KEN1 230047Z 10005KT 07/04 A3036 RMK A01 T00700038  RH  080%=      5-min Rain = 0
KEN1 230048Z 11005KT 07/04 A3036 RMK A01 T00700038  RH  080%=      5-min Rain = 0
KEN1 230049Z 11004KT 07/04 A3036 RMK A01 T00700039  RH  081%=      5-min Rain = 0
KEN1 230050Z 11005KT 07/04 A3036 RMK A01 T00700039  RH  081%=      5-min Rain = 0
KEN1 230051Z 11006KT 07/04 A3036 RMK A01 T00700039  RH  081%=      5-min Rain = 0
KEN1 230052Z 11006KT 07/04 A3036 RMK A01 T00700039  RH  081%=      5-min Rain = 0
KEN1 230053Z 11006KT 07/04 A3036 RMK A01 T00700039  RH  081%=      5-min Rain = 0
KEN1 230054Z 10005KT 07/04 A3036 RMK A01 T00700038  RH  080%=      5-min Rain = 0
KEN1 230055Z 10005KT 07/04 A3035 RMK A01 T00700039  RH  081%=      5-min Rain = 0
KEN1 230056Z 10005KT 07/04 A3035 RMK A01 T00700039  RH  081%=      5-min Rain = 0
KEN1 230057Z 10006KT 07/04 A3036 RMK A01 T00690039  RH  081%=      5-min Rain = 0
KEN1 230058Z 10006KT 07/04 A3036 RMK A01 T00690038  RH  081%=      5-min Rain = 0
KEN1 230059Z 10006KT 07/04 A3036 RMK A01 T00690038  RH  081%=      5-min Rain = 0
KEN1 230100Z 10006KT 07/04 A3036 RMK A01 T00690038  RH  080%=      5-min Rain = 0
KEN1 230101Z 11005KT 07/04 A3036 RMK A01 T00690038  RH  081%=      5-min Rain = 0
KEN1 230102Z 10006KT 07/04 A3036 RMK A01 T00690038  RH  081%=      5-min Rain = 0
KEN1 230103Z 10006KT 07/04 A3036 RMK A01 T00690038  RH  080%=      5-min Rain = 0
KEN1 230104Z 10004KT 07/04 A3036 RMK A01 T00690038  RH  080%=      5-min Rain = 0
KEN1 230105Z 10006KT 07/04 A3036 RMK A01 T00690038  RH  081%=      5-min Rain = 0
KEN1 230106Z 10005KT 07/04 A3036 RMK A01 T00690038  RH  081%=      5-min Rain = 0
KEN1 230107Z 10005KT 07/04 A3036 RMK A01 T00690038  RH  081%=      5-min Rain = 0
KEN1 230108Z 10006KT 07/04 A3036 RMK A01 T00690038  RH  081%=      5-min Rain = 0
KEN1 230109Z 10006KT 07/04 A3036 RMK A01 T00690038  RH  080%=      5-min Rain = 0
KEN1 230110Z 10006KT 07/04 A3036 RMK A01 T00690038  RH  080%=      5-min Rain = 0
KEN1 230111Z 10005KT 07/04 A3035 RMK A01 T00700038  RH  080%=      5-min Rain = 0
KEN1 230112Z 09006KT 07/04 A3035 RMK A01 T00700038  RH  081%=      5-min Rain = 0
KEN1 230113Z 10006KT 07/04 A3035 RMK A01 T00700039  RH  081%=      5-min Rain = 0
KEN1 230114Z 10006KT 07/04 A3035 RMK A01 T00700038  RH  080%=      5-min Rain = 0
KEN1 230115Z 10007KT 07/04 A3035 RMK A01 T00700038  RH  080%=      5-min Rain = 0
KEN1 230116Z 10006KT 07/04 A3035 RMK A01 T00700039  RH  081%=      5-min Rain = 0
KEN1 230117Z 09006KT 07/04 A3035 RMK A01 T00700039  RH  081%=      5-min Rain = 0
KEN1 230118Z 11006KT 07/04 A3035 RMK A01 T00700039  RH  081%=      5-min Rain = 0
KEN1 230119Z 11006KT 07/04 A3035 RMK A01 T00700039  RH  081%=      5-min Rain = 0
KEN1 230120Z 11004KT 07/04 A3036 RMK A01 T00700038  RH  081%=      5-min Rain = 0
KEN1 230121Z 11004KT 07/04 A3036 RMK A01 T00700039  RH  081%=      5-min Rain = 0
KEN1 230122Z 10004KT 07/04 A3036 RMK A01 T00700039  RH  081%=      5-min Rain = 0
KEN1 230123Z 10003KT 07/04 A3036 RMK A01 T00700039  RH  081%=      5-min Rain = 0
KEN1 230124Z 11003KT 07/04 A3036 RMK A01 T00700039  RH  081%=      5-min Rain = 0
KEN1 230125Z 10005KT 07/04 A3036 RMK A01 T00700039  RH  081%=      5-min Rain = 0
KEN1 230126Z 12003KT 07/04 A3036 RMK A01 T00700038  RH  080%=      5-min Rain = 0
KEN1 230127Z 11004KT 07/04 A3036 RMK A01 T00700038  RH  080%=      5-min Rain = 0
KEN1 230128Z 11005KT 07/04 A3036 RMK A01 T00700038  RH  080%=      5-min Rain = 0
KEN1 230129Z 10005KT 07/04 A3036 RMK A01 T00700038  RH  080%=      5-min Rain = 0
KEN1 230130Z 11003KT 07/04 A3036 RMK A01 T00700037  RH  080%=      5-min Rain = 0
KEN1 230131Z 11004KT 07/04 A3036 RMK A01 T00700038  RH  080%=      5-min Rain = 0
KEN1 230132Z 11004KT 07/04 A3036 RMK A01 T00700038  RH  080%=      5-min Rain = 0
KEN1 230133Z 12003KT 07/04 A3036 RMK A01 T00700038  RH  080%=      5-min Rain = 0
KEN1 230134Z 13004KT 07/04 A3036 RMK A01 T00700038  RH  080%=      5-min Rain = 0
KEN1 230135Z 11003KT 07/04 A3036 RMK A01 T00700038  RH  080%=      5-min Rain = 0
KEN1 230136Z 12003KT 07/04 A3036 RMK A01 T00700038  RH  080%=      5-min Rain = 0
KEN1 230137Z 12002KT 07/04 A3036 RMK A01 T00700038  RH  080%=      5-min Rain = 0
KEN1 230138Z 13003KT 07/04 A3037 RMK A01 T00700038  RH  080%=      5-min Rain = 0
KEN1 230139Z 14002KT 07/04 A3037 RMK A01 T00700038  RH  080%=      5-min Rain = 0
KEN1 230140Z 15002KT 07/04 A3037 RMK A01 T00700039  RH  081%=      5-min Rain = 0
KEN1 230141Z 15002KT 07/04 A3037 RMK A01 T00700039  RH  080%=      5-min Rain = 0
KEN1 230142Z 16003KT 07/04 A3037 RMK A01 T00700039  RH  080%=      5-min Rain = 0
KEN1 230143Z 14003KT 07/04 A3037 RMK A01 T00700038  RH  080%=      5-min Rain = 0
KEN1 230144Z 14003KT 07/04 A3037 RMK A01 T00700037  RH  080%=      5-min Rain = 0
KEN1 230145Z 13003KT 07/04 A3037 RMK A01 T00700037  RH  080%=      5-min Rain = 0
KEN1 230146Z 12002KT 07/04 A3036 RMK A01 T00700038  RH  080%=      5-min Rain = 0
KEN1 230147Z 13003KT 07/04 A3036 RMK A01 T00700038  RH  080%=      5-min Rain = 0
KEN1 230148Z 13003KT 07/04 A3037 RMK A01 T00700037  RH  080%=      5-min Rain = 0
KEN1 230149Z 12002KT 07/04 A3037 RMK A01 T00700038  RH  080%=      5-min Rain = 0
KEN1 230150Z 13003KT 07/04 A3037 RMK A01 T00700038  RH  080%=      5-min Rain = 0
KEN1 230151Z 13003KT 07/04 A3037 RMK A01 T00710039  RH  080%=      5-min Rain = 0
KEN1 230152Z 13004KT 07/04 A3037 RMK A01 T00700039  RH  081%=      5-min Rain = 0
KEN1 230153Z 13003KT 07/04 A3037 RMK A01 T00700038  RH  080%=      5-min Rain = 0
KEN1 230154Z 13003KT 07/04 A3037 RMK A01 T00700038  RH  080%=      5-min Rain = 0
KEN1 230155Z 13004KT 07/04 A3036 RMK A01 T00700039  RH  080%=      5-min Rain = 0
KEN1 230156Z 13004KT 07/04 A3036 RMK A01 T00700038  RH  080%=      5-min Rain = 0
KEN1 230157Z 13004KT 07/04 A3036 RMK A01 T00700038  RH  080%=      5-min Rain = 0
KEN1 230158Z 13004KT 07/04 A3036 RMK A01 T00700038  RH  080%=      5-min Rain = 0
KEN1 230159Z 13005KT 07/04 A3036 RMK A01 T00700039  RH  080%=      5-min Rain = 0
KEN1 230200Z 13005KT 07/04 A3036 RMK A01 T00700038  RH  080%=      5-min Rain = 0
KEN1 230201Z 13005KT 07/04 A3036 RMK A01 T00700038  RH  080%=      5-min Rain = 0
KEN1 230202Z 13004KT 07/04 A3036 RMK A01 T00700037  RH  080%=      5-min Rain = 0
KEN1 230203Z 13004KT 07/04 A3036 RMK A01 T00700037  RH  080%=      5-min Rain = 0
KEN1 230204Z 13004KT 07/04 A3036 RMK A01 T00700038  RH  080%=      5-min Rain = 0
KEN1 230205Z 13004KT 07/04 A3036 RMK A01 T00700038  RH  080%=      5-min Rain = 0
KEN1 230206Z 13003KT 07/04 A3036 RMK A01 T00700038  RH  080%=      5-min Rain = 0
KEN1 230207Z 13003KT 07/04 A3036 RMK A01 T00700038  RH  080%=      5-min Rain = 0
KEN1 230208Z 14004KT 07/04 A3036 RMK A01 T00700039  RH  081%=      5-min Rain = 0
KEN1 230209Z 13005KT 07/04 A3036 RMK A01 T00700038  RH  080%=      5-min Rain = 0
KEN1 230210Z 14003KT 07/04 A3036 RMK A01 T00700037  RH  080%=      5-min Rain = 0
KEN1 230211Z 14003KT 07/04 A3036 RMK A01 T00700037  RH  080%=      5-min Rain = 0
KEN1 230212Z 15003KT 07/04 A3036 RMK A01 T00700037  RH  079%=      5-min Rain = 0
KEN1 230213Z 15003KT 07/04 A3036 RMK A01 T00700037  RH  079%=      5-min Rain = 0
KEN1 230214Z 14003KT 07/04 A3036 RMK A01 T00700037  RH  080%=      5-min Rain = 0
KEN1 230215Z 14003KT 07/04 A3036 RMK A01 T00700037  RH  079%=      5-min Rain = 0
KEN1 230216Z 13003KT 07/04 A3036 RMK A01 T00700036  RH  079%=      5-min Rain = 0
KEN1 230217Z 14003KT 07/04 A3036 RMK A01 T00700037  RH  079%=      5-min Rain = 0
KEN1 230218Z 14003KT 07/04 A3036 RMK A01 T00700036  RH  079%=      5-min Rain = 0
KEN1 230219Z 14003KT 07/04 A3036 RMK A01 T00700037  RH  079%=      5-min Rain = 0
KEN1 230220Z 14003KT 07/04 A3036 RMK A01 T00700036  RH  079%=      5-min Rain = 0
KEN1 230221Z 14004KT 07/04 A3036 RMK A01 T00700036  RH  079%=      5-min Rain = 0
KEN1 230222Z 15003KT 07/04 A3036 RMK A01 T00700036  RH  079%=      5-min Rain = 0
KEN1 230223Z 15003KT 07/04 A3036 RMK A01 T00700036  RH  079%=      5-min Rain = 0
KEN1 230224Z 15002KT 07/04 A3037 RMK A01 T00700037  RH  080%=      5-min Rain = 0
KEN1 230225Z 16002KT 07/04 A3037 RMK A01 T00700037  RH  080%=      5-min Rain = 0
KEN1 230226Z 16002KT 07/04 A3037 RMK A01 T00700037  RH  080%=      5-min Rain = 0
KEN1 230227Z 16003KT 07/04 A3037 RMK A01 T00700037  RH  080%=      5-min Rain = 0
KEN1 230228Z 15002KT 07/04 A3037 RMK A01 T00700036  RH  079%=      5-min Rain = 0
KEN1 230229Z 16002KT 07/04 A3037 RMK A01 T00700036  RH  079%=      5-min Rain = 0
KEN1 230230Z 16002KT 07/04 A3037 RMK A01 T00700036  RH  079%=      5-min Rain = 0
KEN1 230231Z 16003KT 07/04 A3037 RMK A01 T00700037  RH  079%=      5-min Rain = 0
KEN1 230232Z 14003KT 07/04 A3037 RMK A01 T00700037  RH  079%=      5-min Rain = 0
KEN1 230233Z 14003KT 07/04 A3037 RMK A01 T00700036  RH  079%=      5-min Rain = 0
KEN1 230234Z 14002KT 07/04 A3037 RMK A01 T00700036  RH  079%=      5-min Rain = 0
KEN1 230235Z 13003KT 07/04 A3037 RMK A01 T00700037  RH  079%=      5-min Rain = 0
KEN1 230236Z 13002KT 07/04 A3036 RMK A01 T00700037  RH  079%=      5-min Rain = 0
KEN1 230237Z 13002KT 07/04 A3036 RMK A01 T00700037  RH  079%=      5-min Rain = 0
KEN1 230238Z 13002KT 07/04 A3036 RMK A01 T00700038  RH  080%=      5-min Rain = 0
KEN1 230239Z 13002KT 07/04 A3036 RMK A01 T00700038  RH  080%=      5-min Rain = 0
KEN1 230240Z 14003KT 07/04 A3036 RMK A01 T00700037  RH  080%=      5-min Rain = 0
KEN1 230241Z 13003KT 07/04 A3036 RMK A01 T00700037  RH  080%=      5-min Rain = 0
KEN1 230242Z 13003KT 07/04 A3036 RMK A01 T00700037  RH  080%=      5-min Rain = 0
KEN1 230243Z 13003KT 07/04 A3036 RMK A01 T00700037  RH  079%=      5-min Rain = 0
KEN1 230244Z 13002KT 07/04 A3036 RMK A01 T00700037  RH  080%=      5-min Rain = 0
KEN1 230245Z 14003KT 07/04 A3036 RMK A01 T00700038  RH  080%=      5-min Rain = 0
KEN1 230246Z 14004KT 07/04 A3036 RMK A01 T00700038  RH  080%=      5-min Rain = 0
KEN1 230247Z 13003KT 07/04 A3036 RMK A01 T00700037  RH  079%=      5-min Rain = 0
KEN1 230248Z 14003KT 07/04 A3036 RMK A01 T00700037  RH  080%=      5-min Rain = 0
KEN1 230249Z 15003KT 07/04 A3036 RMK A01 T00700037  RH  080%=      5-min Rain = 0
KEN1 230250Z 16003KT 07/04 A3036 RMK A01 T00700038  RH  080%=      5-min Rain = 0
KEN1 230251Z 17003KT 07/04 A3036 RMK A01 T00700037  RH  080%=      5-min Rain = 0
KEN1 230252Z 18002KT 07/04 A3036 RMK A01 T00700037  RH  080%=      5-min Rain = 0
KEN1 230253Z 18003KT 07/04 A3037 RMK A01 T00700038  RH  080%=      5-min Rain = 0
KEN1 230254Z 19003KT 07/04 A3037 RMK A01 T00700038  RH  080%=      5-min Rain = 0
KEN1 230255Z 18002KT 07/04 A3037 RMK A01 T00700038  RH  080%=      5-min Rain = 0
KEN1 230256Z 18003KT 07/04 A3037 RMK A01 T00700038  RH  080%=      5-min Rain = 0
KEN1 230257Z 18003KT 07/04 A3037 RMK A01 T00700038  RH  080%=      5-min Rain = 0
KEN1 230258Z 18003KT 07/04 A3037 RMK A01 T00700038  RH  080%=      5-min Rain = 0
KEN1 230259Z 18002KT 07/04 A3037 RMK A01 T00700038  RH  080%=      5-min Rain = 0
KEN1 230300Z 17002KT 07/04 A3036 RMK A01 T00700038  RH  081%=      5-min Rain = 0
KEN1 230301Z 16002KT 07/04 A3036 RMK A01 T00700039  RH  081%=      5-min Rain = 0
KEN1 230302Z 14002KT 07/04 A3036 RMK A01 T00700038  RH  081%=      5-min Rain = 0
KEN1 230303Z 14003KT 07/04 A3036 RMK A01 T00700039  RH  081%=      5-min Rain = 0
KEN1 230304Z 14003KT 07/04 A3036 RMK A01 T00700039  RH  081%=      5-min Rain = 0
KEN1 230305Z 14003KT 07/04 A3036 RMK A01 T00690038  RH  080%=      5-min Rain = 0
KEN1 230306Z 15004KT 07/04 A3036 RMK A01 T00690038  RH  081%=      5-min Rain = 0
KEN1 230307Z 14004KT 07/04 A3036 RMK A01 T00690039  RH  081%=      5-min Rain = 0
KEN1 230308Z 14004KT 07/04 A3035 RMK A01 T00700039  RH  081%=      5-min Rain = 0
KEN1 230309Z 13004KT 07/04 A3035 RMK A01 T00690039  RH  081%=      5-min Rain = 0
KEN1 230310Z 13004KT 07/04 A3035 RMK A01 T00690039  RH  081%=      5-min Rain = 0
KEN1 230311Z 14004KT 07/04 A3035 RMK A01 T00690040  RH  081%=      5-min Rain = 0
KEN1 230312Z 14004KT 07/04 A3035 RMK A01 T00690040  RH  081%=      5-min Rain = 0
KEN1 230313Z 14004KT 07/04 A3035 RMK A01 T00690039  RH  081%=      5-min Rain = 0
KEN1 230314Z 13004KT 07/04 A3035 RMK A01 T00690039  RH  081%=      5-min Rain = 0
KEN1 230315Z 13004KT 07/04 A3035 RMK A01 T00690039  RH  081%=      5-min Rain = 0
KEN1 230316Z 13004KT 07/04 A3035 RMK A01 T00690039  RH  081%=      5-min Rain = 0
KEN1 230317Z 13004KT 07/04 A3035 RMK A01 T00690039  RH  081%=      5-min Rain = 0
KEN1 230318Z 13004KT 07/04 A3035 RMK A01 T00690039  RH  081%=      5-min Rain = 0
KEN1 230319Z 13004KT 07/04 A3035 RMK A01 T00690039  RH  081%=      5-min Rain = 0
KEN1 230320Z 13004KT 07/04 A3035 RMK A01 T00690039  RH  081%=      5-min Rain = 0
KEN1 230321Z 14003KT 07/04 A3035 RMK A01 T00690039  RH  081%=      5-min Rain = 0
KEN1 230322Z 14003KT 07/04 A3035 RMK A01 T00690039  RH  082%=      5-min Rain = 0
KEN1 230323Z 15003KT 07/04 A3035 RMK A01 T00690040  RH  082%=      5-min Rain = 0
KEN1 230324Z 15003KT 07/04 A3035 RMK A01 T00690039  RH  081%=      5-min Rain = 0
KEN1 230325Z 15002KT 07/04 A3035 RMK A01 T00690039  RH  081%=      5-min Rain = 0
KEN1 230326Z 15002KT 07/04 A3035 RMK A01 T00690039  RH  081%=      5-min Rain = 0
KEN1 230327Z 15002KT 07/04 A3035 RMK A01 T00690040  RH  082%=      5-min Rain = 0
KEN1 230328Z 15003KT 07/04 A3035 RMK A01 T00690039  RH  081%=      5-min Rain = 0
KEN1 230329Z 14003KT 07/04 A3035 RMK A01 T00690039  RH  081%=      5-min Rain = 0
KEN1 230330Z 14003KT 07/04 A3035 RMK A01 T00690039  RH  082%=      5-min Rain = 0
KEN1 230331Z 14004KT 07/04 A3035 RMK A01 T00690039  RH  081%=      5-min Rain = 0
KEN1 230332Z 15004KT 07/04 A3034 RMK A01 T00690039  RH  081%=      5-min Rain = 0
KEN1 230333Z 14003KT 07/04 A3034 RMK A01 T00690040  RH  082%=      5-min Rain = 0
KEN1 230334Z 15004KT 07/04 A3034 RMK A01 T00690039  RH  082%=      5-min Rain = 0
KEN1 230335Z 15004KT 07/04 A3034 RMK A01 T00690040  RH  082%=      5-min Rain = 0
KEN1 230336Z 14005KT 07/04 A3034 RMK A01 T00690040  RH  082%=      5-min Rain = 0
KEN1 230337Z 14005KT 07/04 A3034 RMK A01 T00680039  RH  082%=      5-min Rain = 0
KEN1 230338Z 14005KT 07/04 A3034 RMK A01 T00690039  RH  082%=      5-min Rain = 0
KEN1 230339Z 14004KT 07/04 A3034 RMK A01 T00680039  RH  082%=      5-min Rain = 0
KEN1 230340Z 14004KT 07/04 A3034 RMK A01 T00680040  RH  082%=      5-min Rain = 0
KEN1 230341Z 14004KT 07/04 A3034 RMK A01 T00680041  RH  082%=      5-min Rain = 0
KEN1 230342Z 14005KT 07/04 A3034 RMK A01 T00680040  RH  082%=      5-min Rain = 0
KEN1 230343Z 14005KT 07/04 A3034 RMK A01 T00680040  RH  082%=      5-min Rain = 0
KEN1 230344Z 14005KT 07/04 A3034 RMK A01 T00680040  RH  082%=      5-min Rain = 0
KEN1 230345Z 14006KT 07/04 A3034 RMK A01 T00680040  RH  082%=      5-min Rain = 0
KEN1 230346Z 15006KT 07/04 A3034 RMK A01 T00680040  RH  082%=      5-min Rain = 0
KEN1 230347Z 14006KT 07/04 A3034 RMK A01 T00680039  RH  082%=      5-min Rain = 0
KEN1 230348Z 15005KT 07/04 A3034 RMK A01 T00680039  RH  082%=      5-min Rain = 0
KEN1 230349Z 15004KT 07/04 A3034 RMK A01 T00680040  RH  082%=      5-min Rain = 0
KEN1 230350Z 15004KT 07/04 A3033 RMK A01 T00680040  RH  082%=      5-min Rain = 0
KEN1 230351Z 14003KT 07/04 A3033 RMK A01 T00680041  RH  083%=      5-min Rain = 0
KEN1 230352Z 14004KT 07/04 A3033 RMK A01 T00680041  RH  083%=      5-min Rain = 0
KEN1 230353Z 14005KT 07/04 A3033 RMK A01 T00680041  RH  083%=      5-min Rain = 0
KEN1 230354Z 14004KT 07/04 A3033 RMK A01 T00680041  RH  082%=      5-min Rain = 0
KEN1 230355Z 14004KT 07/04 A3033 RMK A01 T00680041  RH  083%=      5-min Rain = 0
KEN1 230356Z 15004KT 07/04 A3033 RMK A01 T00680041  RH  083%=      5-min Rain = 0
KEN1 230357Z 15004KT 07/04 A3033 RMK A01 T00690042  RH  083%=      5-min Rain = 0
KEN1 230358Z 15005KT 07/04 A3033 RMK A01 T00680041  RH  083%=      5-min Rain = 0
KEN1 230359Z 16004KT 07/04 A3033 RMK A01 T00680041  RH  083%=      5-min Rain = 0
KEN1 230400Z 15005KT 07/04 A3033 RMK A01 T00680041  RH  083%=      5-min Rain = 0
KEN1 230401Z 15006KT 07/04 A3033 RMK A01 T00680041  RH  083%=      5-min Rain = 0
KEN1 230402Z 15005KT 07/04 A3033 RMK A01 T00680040  RH  082%=      5-min Rain = 0
KEN1 230403Z 16004KT 07/04 A3033 RMK A01 T00680041  RH  082%=      5-min Rain = 0
KEN1 230404Z 15005KT 07/04 A3033 RMK A01 T00680041  RH  083%=      5-min Rain = 0
KEN1 230405Z 16005KT 07/04 A3033 RMK A01 T00680041  RH  082%=      5-min Rain = 0
KEN1 230406Z 16005KT 07/04 A3033 RMK A01 T00680041  RH  083%=      5-min Rain = 0
KEN1 230407Z 16004KT 07/04 A3033 RMK A01 T00690041  RH  083%=      5-min Rain = 0
KEN1 230408Z 16005KT 07/04 A3033 RMK A01 T00680041  RH  083%=      5-min Rain = 0
KEN1 230409Z 15004KT 07/04 A3033 RMK A01 T00680041  RH  083%=      5-min Rain = 0
KEN1 230410Z 16005KT 07/04 A3033 RMK A01 T00680041  RH  083%=      5-min Rain = 0
KEN1 230411Z 15005KT 07/04 A3033 RMK A01 T00690041  RH  083%=      5-min Rain = 0
KEN1 230412Z 15005KT 07/04 A3033 RMK A01 T00680041  RH  083%=      5-min Rain = 0
KEN1 230413Z 16004KT 07/04 A3033 RMK A01 T00680041  RH  083%=      5-min Rain = 0
KEN1 230414Z 16004KT 07/04 A3033 RMK A01 T00680041  RH  083%=      5-min Rain = 0
KEN1 230415Z 16005KT 07/04 A3033 RMK A01 T00680041  RH  083%=      5-min Rain = 0
KEN1 230416Z 16005KT 07/04 A3033 RMK A01 T00680041  RH  083%=      5-min Rain = 0
KEN1 230417Z 16006KT 07/04 A3033 RMK A01 T00680041  RH  083%=      5-min Rain = 0
KEN1 230418Z 15005KT 07/04 A3033 RMK A01 T00680040  RH  083%=      5-min Rain = 0
KEN1 230419Z 16006KT 07/04 A3033 RMK A01 T00680040  RH  083%=      5-min Rain = 0
KEN1 230420Z 16005KT 07/04 A3033 RMK A01 T00680041  RH  083%=      5-min Rain = 0
KEN1 230421Z 15006KT 07/04 A3033 RMK A01 T00680041  RH  083%=      5-min Rain = 0
KEN1 230422Z 16005KT 07/04 A3033 RMK A01 T00680041  RH  083%=      5-min Rain = 0
KEN1 230423Z 16005KT 07/04 A3033 RMK A01 T00680042  RH  083%=      5-min Rain = 0
KEN1 230424Z 16006KT 07/04 A3033 RMK A01 T00670042  RH  084%=      5-min Rain = 0
KEN1 230425Z 16007KT 07/04 A3033 RMK A01 T00670042  RH  084%=      5-min Rain = 0
KEN1 230426Z 16007KT 07/04 A3033 RMK A01 T00670042  RH  084%=      5-min Rain = 0
KEN1 230427Z 16008KT 07/04 A3033 RMK A01 T00670043  RH  085%=      5-min Rain = 0
KEN1 230428Z 17007KT 07/04 A3032 RMK A01 T00660042  RH  085%=      5-min Rain = 0
KEN1 230429Z 17008KT 07/04 A3032 RMK A01 T00660042  RH  085%=      5-min Rain = 0
KEN1 230430Z 16007KT 07/04 A3032 RMK A01 T00660043  RH  085%=      5-min Rain = 0
KEN1 230431Z 16006KT 07/04 A3032 RMK A01 T00660043  RH  085%=      5-min Rain = 0
KEN1 230432Z 16007KT 07/04 A3032 RMK A01 T00650044  RH  086%=      5-min Rain = 0
KEN1 230433Z 16007KT 07/04 A3032 RMK A01 T00650044  RH  086%=      5-min Rain = 0
KEN1 230434Z 16008KT 07/04 A3032 RMK A01 T00650044  RH  086%=      5-min Rain = 0
KEN1 230435Z 15006KT 07/04 A3032 RMK A01 T00650044  RH  086%=      5-min Rain = 0
KEN1 230436Z 15006KT 07/04 A3032 RMK A01 T00650044  RH  087%=      5-min Rain = 0
KEN1 230437Z 15007KT 07/04 A3032 RMK A01 T00650044  RH  087%=      5-min Rain = 0
KEN1 230438Z 16007KT 07/04 A3032 RMK A01 T00650044  RH  087%=      5-min Rain = 0
KEN1 230439Z 16007KT 07/04 A3032 RMK A01 T00650044  RH  086%=      5-min Rain = 0
KEN1 230440Z 16006KT 07/04 A3032 RMK A01 T00650044  RH  087%=      5-min Rain = 0
KEN1 230441Z 16006KT 07/05 A3032 RMK A01 T00650045  RH  087%=      5-min Rain = 0
KEN1 230442Z 16006KT 07/04 A3032 RMK A01 T00650044  RH  087%=      5-min Rain = 0
KEN1 230443Z 15005KT 07/04 A3032 RMK A01 T00650044  RH  087%=      5-min Rain = 0
KEN1 230444Z 16005KT 07/04 A3032 RMK A01 T00650044  RH  087%=      5-min Rain = 0
KEN1 230445Z 16005KT 07/05 A3032 RMK A01 T00650045  RH  087%=      5-min Rain = 0
KEN1 230446Z 16005KT 07/05 A3032 RMK A01 T00650045  RH  087%=      5-min Rain = 0
KEN1 230447Z 17007KT 07/05 A3032 RMK A01 T00650045  RH  087%=      5-min Rain = 0
KEN1 230448Z 17006KT 07/04 A3032 RMK A01 T00650043  RH  086%=      5-min Rain = 0
KEN1 230449Z 16006KT 07/04 A3032 RMK A01 T00650044  RH  086%=      5-min Rain = 0
KEN1 230450Z 16006KT 07/04 A3032 RMK A01 T00650043  RH  086%=      5-min Rain = 0
KEN1 230451Z 15006KT 07/04 A3031 RMK A01 T00650043  RH  086%=      5-min Rain = 0
KEN1 230452Z 16006KT 07/04 A3031 RMK A01 T00650044  RH  086%=      5-min Rain = 0
KEN1 230453Z 15007KT 07/04 A3031 RMK A01 T00650044  RH  086%=      5-min Rain = 0
KEN1 230454Z 16006KT 07/04 A3031 RMK A01 T00650043  RH  086%=      5-min Rain = 0
KEN1 230455Z 15006KT 07/04 A3031 RMK A01 T00650043  RH  086%=      5-min Rain = 0
KEN1 230456Z 15006KT 07/04 A3031 RMK A01 T00650043  RH  086%=      5-min Rain = 0
KEN1 230457Z 15006KT 07/04 A3031 RMK A01 T00650044  RH  086%=      5-min Rain = 0
KEN1 230458Z 15006KT 06/04 A3031 RMK A01 T00640043  RH  086%=      5-min Rain = 0
KEN1 230459Z 15006KT 06/04 A3031 RMK A01 T00640043  RH  086%=      5-min Rain = 0
KEN1 230500Z 15006KT 06/04 A3031 RMK A01 T00640043  RH  086%=      5-min Rain = 0
KEN1 230501Z 15005KT 06/04 A3031 RMK A01 T00640043  RH  086%=      5-min Rain = 0
KEN1 230502Z 15005KT 06/04 A3031 RMK A01 T00640043  RH  087%=      5-min Rain = 0
KEN1 230503Z 15006KT 06/04 A3031 RMK A01 T00640044  RH  087%=      5-min Rain = 0
KEN1 230504Z 16005KT 06/04 A3031 RMK A01 T00640043  RH  086%=      5-min Rain = 0
KEN1 230505Z 15005KT 06/04 A3031 RMK A01 T00640043  RH  087%=      5-min Rain = 0
KEN1 230506Z 15005KT 06/04 A3031 RMK A01 T00640044  RH  087%=      5-min Rain = 0
KEN1 230507Z 15005KT 06/04 A3031 RMK A01 T00640044  RH  087%=      5-min Rain = 0
KEN1 230508Z 16005KT 06/04 A3031 RMK A01 T00640044  RH  087%=      5-min Rain = 0
KEN1 230509Z 16004KT 06/04 A3031 RMK A01 T00640044  RH  087%=      5-min Rain = 0
KEN1 230510Z 16004KT 06/04 A3031 RMK A01 T00640044  RH  087%=      5-min Rain = 0
KEN1 230511Z 16006KT 06/04 A3031 RMK A01 T00640044  RH  087%=      5-min Rain = 0
KEN1 230512Z 16007KT 06/04 A3031 RMK A01 T00640044  RH  087%=      5-min Rain = 0
KEN1 230513Z 16006KT 06/04 A3031 RMK A01 T00640043  RH  087%=      5-min Rain = 0
KEN1 230514Z 16006KT 06/04 A3031 RMK A01 T00640043  RH  086%=      5-min Rain = 0
KEN1 230515Z 16007KT 06/04 A3031 RMK A01 T00640043  RH  086%=      5-min Rain = 0
KEN1 230516Z 16008KT 06/04 A303 RMK A01 T00640042  RH  086%=      5-min Rain = 0
KEN1 230517Z 16006KT 06/04 A303 RMK A01 T00640042  RH  086%=      5-min Rain = 0
KEN1 230518Z 15006KT 06/04 A303 RMK A01 T00640042  RH  086%=      5-min Rain = 0
KEN1 230519Z 17005KT 06/04 A303 RMK A01 T00640042  RH  086%=      5-min Rain = 0
KEN1 230520Z 16005KT 06/04 A303 RMK A01 T00640042  RH  086%=      5-min Rain = 0
KEN1 230521Z 16006KT 06/04 A3031 RMK A01 T00640043  RH  086%=      5-min Rain = 0
KEN1 230522Z 16006KT 06/04 A3031 RMK A01 T00640042  RH  086%=      5-min Rain = 0
KEN1 230523Z 16006KT 06/04 A3031 RMK A01 T00630042  RH  086%=      5-min Rain = 0
KEN1 230524Z 16006KT 06/04 A3031 RMK A01 T00630042  RH  086%=      5-min Rain = 0
KEN1 230525Z 16006KT 06/04 A303 RMK A01 T00630041  RH  086%=      5-min Rain = 0
KEN1 230526Z 16005KT 06/04 A303 RMK A01 T00630042  RH  086%=      5-min Rain = 0
KEN1 230527Z 16006KT 06/04 A303 RMK A01 T00630042  RH  086%=      5-min Rain = 0
KEN1 230528Z 16004KT 06/04 A303 RMK A01 T00630041  RH  086%=      5-min Rain = 0
KEN1 230529Z 16005KT 06/04 A303 RMK A01 T00630042  RH  086%=      5-min Rain = 0
KEN1 230530Z 16005KT 06/04 A303 RMK A01 T00630042  RH  086%=      5-min Rain = 0
KEN1 230531Z 15005KT 06/04 A303 RMK A01 T00630041  RH  086%=      5-min Rain = 0
KEN1 230532Z 16006KT 06/04 A303 RMK A01 T00630041  RH  086%=      5-min Rain = 0
KEN1 230533Z 16005KT 06/04 A303 RMK A01 T00630041  RH  086%=      5-min Rain = 0
KEN1 230534Z 16005KT 06/04 A303 RMK A01 T00630041  RH  086%=      5-min Rain = 0
KEN1 230535Z 15004KT 06/04 A303 RMK A01 T00630042  RH  086%=      5-min Rain = 0
KEN1 230536Z 15005KT 06/04 A303 RMK A01 T00630042  RH  086%=      5-min Rain = 0
KEN1 230537Z 15005KT 06/04 A303 RMK A01 T00630042  RH  086%=      5-min Rain = 0
KEN1 230538Z 15004KT 06/04 A303 RMK A01 T00630041  RH  086%=      5-min Rain = 0
KEN1 230539Z 15004KT 06/04 A303 RMK A01 T00630042  RH  086%=      5-min Rain = 0
KEN1 230540Z 14005KT 06/04 A303 RMK A01 T00630041  RH  086%=      5-min Rain = 0
KEN1 230541Z 15005KT 06/04 A303 RMK A01 T00630042  RH  086%=      5-min Rain = 0
KEN1 230542Z 15004KT 06/04 A303 RMK A01 T00630041  RH  086%=      5-min Rain = 0
KEN1 230543Z 16004KT 06/04 A303 RMK A01 T00630041  RH  086%=      5-min Rain = 0
KEN1 230544Z 16005KT 06/04 A303 RMK A01 T00620042  RH  086%=      5-min Rain = 0
KEN1 230545Z 16005KT 06/04 A303 RMK A01 T00620041  RH  086%=      5-min Rain = 0
KEN1 230546Z 15004KT 06/04 A303 RMK A01 T00620041  RH  086%=      5-min Rain = 0
KEN1 230547Z 15004KT 06/04 A303 RMK A01 T00620041  RH  086%=      5-min Rain = 0
KEN1 230548Z 15005KT 06/04 A303 RMK A01 T00620042  RH  087%=      5-min Rain = 0
KEN1 230549Z 15004KT 06/04 A303 RMK A01 T00630042  RH  087%=      5-min Rain = 0
KEN1 230550Z 15004KT 06/04 A303 RMK A01 T00630042  RH  087%=      5-min Rain = 0
KEN1 230551Z 16004KT 06/04 A303 RMK A01 T00620042  RH  087%=      5-min Rain = 0
KEN1 230552Z 17004KT 06/04 A303 RMK A01 T00620041  RH  087%=      5-min Rain = 0
KEN1 230553Z 16004KT 06/04 A303 RMK A01 T00620042  RH  087%=      5-min Rain = 0
KEN1 230554Z 17004KT 06/04 A303 RMK A01 T00620042  RH  087%=      5-min Rain = 0
KEN1 230555Z 18003KT 06/04 A303 RMK A01 T00620042  RH  087%=      5-min Rain = 0
KEN1 230556Z 17003KT 06/04 A303 RMK A01 T00630043  RH  087%=      5-min Rain = 0
KEN1 230557Z 17003KT 06/04 A303 RMK A01 T00620042  RH  087%=      5-min Rain = 0
KEN1 230558Z 17004KT 06/04 A303 RMK A01 T00620042  RH  087%=      5-min Rain = 0
KEN1 230559Z 17003KT 06/04 A303 RMK A01 T00620042  RH  087%=      5-min Rain = 0

Page generated in 0.1195 seconds.